                ,  0.195,  0.292,  0.389,  0.486,  0.583,  0.680,  0.777,  0.874,  0.971,  1.068,  1.165,  1.262,  1.359,  1.456,  1.553,  1.651,  1.748,  1.845,  1.942,  2.039,  2.136,  2.233,  2.330,  2.427,  2.524,  2.621,  2.718,  2.815,  2.912,  3.009,  3.106,  3.203,  3.300,  3.397,  3.494,  3.591,  3.688,  3.785,  3.882,  3.979,  4.076,  4.173,  4.270,  4.367,  4.464,  4.561,  4.658,  4.755,  4.852,  4.950,  5.047,  5.144,  5.241,  5.338,  5.435,  5.532,  5.629,  5.726,  5.823,  5.920,  6.017,  6.114,  6.211,  6.308,  6.405,  6.502,  6.599,  6.696,  6.793,  6.890,  6.987,  7.084,  7.181,  7.278,  7.375,  7.472,  7.569,  7.666,  7.763,  7.860,  7.957,  8.054,  8.151,  8.249,  8.346,  8.443,  8.540,  8.637,  8.734,  8.831,  8.928,  9.025,  9.122,  9.219,  9.316,  9.413,  9.510,  9.607
2010/10/19 00:00,   -0.0,   -0.3,    1.1,    2.1,    2.2,    1.9,    2.0,    2.1,    1.6,    2.0,    2.0,    1.2,    0.5,    0.5,    0.7,    1.5,    0.9,  999.0,    1.1,  999.0,    1.7,    1.9,    1.5,    1.9,    2.1,    2.3,    3.1,    3.2,    3.3,    3.3,    3.7,    3.7,    2.7,    2.9,  999.0,    3.2,    4.1,    2.4,    4.1,    3.1,  999.0,  999.0,  999.0,  999.0,  999.0,  999.0,  999.0,  999.0,  999.0,  999.0,  999.0,    2.6,  999.0,  999.0,  999.0,  999.0,  999.0,  999.0,  999.0,  999.0,  999.0,  999.0,  999.0,  999.0,  999.0,  999.0,  999.0,  999.0,  999.0,  999.0,  999.0,  999.0,  999.0,  999.0,  999.0,  999.0,  999.0,  999.0,  999.0,  999.0,  999.0,  999.0,  999.0,  999.0,  999.0,    1.8,  999.0,  999.0,  999.0,    1.8,  999.0,  999.0,  999.0,    1.8,  999.0,  999.0,  999.0,  999.0
2010/10/19 00:10,   -0.0,   -0.2,    0.3,    1.2,    1.2,    1.0,    0.4,    0.9,    1.2,    1.3,    1.2,    0.7,    0.4,    0.5,    1.3,    1.6,    1.3,    1.3,    1.7,    2.1,    2.3,  999.0,    2.9,    2.8,    2.6,    3.4,    4.1,    4.1,    4.7,    4.9,    5.0,    4.8,    4.0,    4.2,    4.1,    5.4,    4.6,    4.5,    3.3,    3.5,    3.0,  999.0,  999.0,  999.0,  999.0,  999.0,  999.0,  999.0,  999.0,  999.0,  999.0,    3.3,  999.0,  999.0,  999.0,  999.0,  999.0,  999.0,  999.0,  999.0,  999.0,  999.0,  999.0,  999.0,  999.0,  999.0,  999.0,  999.0,  999.0,  999.0,  999.0,  999.0,  999.0,  999.0,  999.0,  999.0,  999.0,  999.0,  999.0,  999.0,  999.0,  999.0,  999.0,  999.0,  999.0,  999.0,  999.0,  999.0,  999.0,  999.0,  999.0,  999.0,  999.0,  999.0,  999.0,  999.0,  999.0,  999.0
2010/10/19 00:20,    0.1,   -0.2,    0.2,    1.1,    1.4,    1.1,    1.0,    1.0,    1.6,    1.5,    1.4,    1.0,    0.5,   -0.0,   -0.2,    0.9,    0.8,    0.8,    0.8,    1.6,    1.4,    2.0,    2.0,    2.6,    3.1,    3.3,    3.8,    4.3,    4.7,    5.3,    5.2,    4.8,    4.5,    4.5,    4.4,    4.5,    4.4,    3.9,    3.4,    3.1,  999.0,  999.0,  999.0,  999.0,  999.0,  999.0,  999.0,  999.0,  999.0,  999.0,  999.0,  999.0,  999.0,  999.0,  999.0,  999.0,  999.0,  999.0,  999.0,  999.0,  999.0,  999.0,  999.0,  999.0,  999.0,  999.0,  999.0,  999.0,  999.0,  999.0,  999.0,  999.0,  999.0,  999.0,  999.0,  999.0,  999.0,  999.0,  999.0,  999.0,  999.0,  999.0,  999.0,  999.0,  999.0,  999.0,  999.0,  999.0,  999.0,  999.0,  999.0,  999.0,  999.0,  999.0,  999.0,  999.0,  999.0,  999.0
2010/10/19 00:30,   -0.1,   -0.3,    0.0,    0.7,    1.0,    1.3,    1.3,    1.0,    1.0,    1.2,    1.6,    0.9,    0.5,    0.2,    0.5,    1.0,    1.3,    0.9,    1.3,    1.9,    1.9,    2.0,    2.4,  999.0,    3.1,    3.5,    4.1,    4.4,    5.1,    5.6,    5.5,    4.7,    4.3,    4.8,    4.6,    4.6,    4.0,    3.8,    3.8,    2.9,  999.0,  999.0,  999.0,  999.0,  999.0,  999.0,  999.0,  999.0,  999.0,  999.0,  999.0,  999.0,  999.0,  999.0,  999.0,  999.0,  999.0,  999.0,  999.0,  999.0,  999.0,  999.0,  999.0,  999.0,  999.0,  999.0,  999.0,  999.0,  999.0,  999.0,  999.0,  999.0,  999.0,  999.0,  999.0,  999.0,  999.0,  999.0,  999.0,  999.0,  999.0,  999.0,  999.0,  999.0,  999.0,  999.0,  999.0,  999.0,  999.0,  999.0,  999.0,  999.0,  999.0,  999.0,  999.0,  999.0,  999.0,  999.0
2010/10/19 00:40,   -0.0,   -0.1,    0.3,    0.4,    1.3,    1.2,    0.9,    0.9,    1.3,    1.6,    2.1,    2.2,    2.0,    0.8,    1.1,    1.5,    1.8,    1.3,    1.5,    2.1,    1.9,    2.2,    2.3,    2.4,    3.1,    3.4,    3.9,    4.2,    4.7,    4.6,    4.8,    4.7,    4.6,    5.1,    4.6,    4.3,    3.9,    4.1,    3.3,    2.4,  999.0,  999.0,  999.0,  999.0,  999.0,  999.0,  999.0,  999.0,    3.7,    3.7,  999.0,  999.0,  999.0,  999.0,  999.0,  999.0,  999.0,  999.0,  999.0,  999.0,  999.0,  999.0,  999.0,  999.0,    1.9,  999.0,  999.0,  999.0,  999.0,  999.0,  999.0,  999.0,  999.0,  999.0,  999.0,  999.0,  999.0,  999.0,  999.0,  999.0,  999.0,  999.0,  999.0,  999.0,  999.0,  999.0,  999.0,  999.0,  999.0,  999.0,  999.0,  999.0,  999.0,  999.0,  999.0,  999.0,  999.0,  999.0
2010/10/19 00:50,   -0.0,   -0.0,    0.1,    0.6,    1.3,    1.6,    1.1,    1.1,    1.0,    1.4,    1.8,    1.8,    1.0,    0.6,    0.7,    1.3,    1.3,    1.3,    1.8,    1.9,    2.1,    2.8,    2.0,  999.0,    2.8,    3.4,    4.0,    4.3,    4.7,    4.6,    4.5,    4.7,    4.7,    5.1,    5.1,    4.4,    4.7,    4.8,    4.3,  999.0,  999.0,  999.0,  999.0,  999.0,  999.0,  999.0,  999.0,    3.7,  999.0,  999.0,    4.7,    4.9,    5.2,    5.0,  999.0,  999.0,  999.0,  999.0,  999.0,  999.0,  999.0,  999.0,  999.0,  999.0,  999.0,  999.0,  999.0,  999.0,  999.0,  999.0,  999.0,  999.0,  999.0,  999.0,  999.0,  999.0,  999.0,  999.0,  999.0,  999.0,  999.0,  999.0,  999.0,  999.0,  999.0,  999.0,  999.0,  999.0,  999.0,  999.0,  999.0,  999.0,  999.0,  999.0,  999.0,  999.0,  999.0,  999.0
2010/10/19 01:00,   -0.2,   -0.2,    0.4,    0.4,    1.2,    1.2,    1.2,    1.0,    1.2,    1.6,    1.6,    1.8,    1.9,    1.5,    0.9,    0.7,    1.1,    0.9,    1.2,    1.4,    1.7,    2.2,    3.1,    2.3,    2.4,    3.0,    3.5,    3.4,    3.8,    4.0,    3.5,    3.9,    4.4,    4.5,    4.6,    4.3,    5.0,    4.6,    4.7,    3.7,    3.3,    2.7,  999.0,  999.0,  999.0,  999.0,  999.0,    3.1,  999.0,    4.3,    4.6,    4.7,    4.1,    4.5,  999.0,  999.0,  999.0,  999.0,  999.0,  999.0,  999.0,  999.0,  999.0,    2.9,  999.0,  999.0,  999.0,  999.0,  999.0,  999.0,  999.0,  999.0,  999.0,  999.0,  999.0,  999.0,  999.0,  999.0,  999.0,  999.0,  999.0,  999.0,  999.0,  999.0,  999.0,  999.0,  999.0,  999.0,  999.0,  999.0,  999.0,  999.0,  999.0,  999.0,  999.0,  999.0,  999.0,  999.0
2010/10/19 01:10,   -0.2,    0.1,    0.2,    0.3,    0.8,    1.0,    0.8,    0.7,    1.0,    1.4,    1.6,    1.7,    1.8,    1.5,    1.1,    0.9,    1.0,    1.5,    1.0,    1.3,    2.0,  999.0,    2.4,    2.2,    2.3,    2.4,    3.6,    3.8,    3.5,    4.3,    3.9,    4.0,    4.5,    4.9,    4.7,    4.5,    4.6,    5.2,    4.7,    4.2,    3.5,  999.0,  999.0,  999.0,  999.0,    2.2,    2.5,    3.4,    3.8,    4.3,    4.9,    5.2,    4.8,    4.7,    4.7,  999.0,  999.0,  999.0,  999.0,  999.0,  999.0,  999.0,  999.0,  999.0,  999.0,  999.0,  999.0,  999.0,  999.0,  999.0,  999.0,  999.0,  999.0,  999.0,  999.0,  999.0,  999.0,  999.0,  999.0,  999.0,  999.0,  999.0,  999.0,  999.0,  999.0,  999.0,  999.0,  999.0,  999.0,  999.0,  999.0,  999.0,  999.0,  999.0,  999.0,  999.0,  999.0,  999.0
2010/10/19 01:20,   -0.2,   -0.3,    0.4,    0.7,    1.3,  999.0,    1.7,    0.9,    1.2,    1.4,    1.7,    1.8,    1.6,    1.4,    0.9,    0.8,    1.0,    0.7,    0.8,    1.6,    1.7,    2.2,    2.3,  999.0,    2.0,    2.2,    2.6,  999.0,    2.9,    4.2,    3.7,    3.7,    4.4,    4.6,    4.7,    4.7,    5.1,    5.4,    4.6,    4.7,    3.7,  999.0,  999.0,    3.5,  999.0,  999.0,  999.0,    3.9,    4.2,    4.7,    5.2,    5.8,    5.2,    5.6,    5.2,  999.0,  999.0,  999.0,  999.0,  999.0,  999.0,  999.0,  999.0,  999.0,  999.0,  999.0,  999.0,  999.0,  999.0,  999.0,  999.0,  999.0,  999.0,  999.0,  999.0,  999.0,  999.0,  999.0,  999.0,  999.0,  999.0,  999.0,  999.0,  999.0,  999.0,  999.0,  999.0,  999.0,  999.0,  999.0,  999.0,  999.0,  999.0,  999.0,  999.0,  999.0,  999.0,  999.0
2010/10/19 01:30,   -0.2,   -0.0,    0.4,    1.0,    1.1,    1.4,    1.3,    0.9,    1.0,    1.2,    1.2,    1.3,    1.5,    1.0,    0.4,    0.8,    1.0,    1.0,    1.2,    1.5,    2.1,    2.0,    2.3,    2.2,    2.3,    2.8,    3.0,    3.1,    3.9,    4.1,    4.6,    4.0,    4.4,    4.9,    4.8,  999.0,    4.5,    5.2,    4.6,  999.0,    3.6,    3.0,    1.9,    3.0,    2.6,    3.7,  999.0,    4.1,    3.8,    4.4,    5.1,    5.8,    5.8,    5.9,    5.9,  999.0,  999.0,  999.0,  999.0,  999.0,  999.0,  999.0,  999.0,  999.0,    3.9,    3.9,    1.8,  999.0,  999.0,  999.0,  999.0,  999.0,  999.0,  999.0,  999.0,  999.0,  999.0,  999.0,  999.0,  999.0,  999.0,  999.0,  999.0,  999.0,  999.0,  999.0,  999.0,  999.0,  999.0,  999.0,  999.0,  999.0,  999.0,  999.0,  999.0,  999.0,  999.0,  999.0
2010/10/19 01:40,   -0.1,   -0.2,   -0.1,    0.8,    1.1,    1.1,    1.2,    1.2,    1.3,    1.7,    1.6,    1.3,    1.2,    1.3,    1.4,    1.2,    1.4,    1.5,    1.6,    2.4,    2.4,    2.8,    3.1,    2.8,    3.1,    3.3,    2.8,    3.0,    4.0,    4.7,    4.8,    4.2,    4.3,    4.9,  999.0,    4.5,    4.5,    4.8,    4.6,    2.8,    3.5,    3.2,    2.4,    2.6,    3.1,    3.5,    3.4,    3.4,    3.8,    4.5,    5.4,    5.2,    5.1,    4.9,    4.8,  999.0,  999.0,  999.0,  999.0,  999.0,  999.0,  999.0,  999.0,  999.0,  999.0,    4.9,  999.0,  999.0,  999.0,  999.0,  999.0,  999.0,  999.0,  999.0,  999.0,  999.0,  999.0,  999.0,  999.0,  999.0,  999.0,  999.0,  999.0,  999.0,  999.0,  999.0,  999.0,  999.0,  999.0,  999.0,  999.0,  999.0,  999.0,  999.0,  999.0,  999.0,  999.0,  999.0
2010/10/19 01:50,   -0.1,   -0.1,   -0.0,    0.4,    0.7,  999.0,    0.9,    0.9,    1.4,    1.7,    1.4,    1.3,    1.2,    1.1,    0.9,    1.2,    1.8,    2.1,    3.0,    2.8,    3.3,    3.6,    3.5,    3.5,    3.9,    4.1,    3.4,  999.0,    4.7,    5.7,    5.2,    5.5,    4.7,    4.9,    5.1,    4.5,    4.4,    5.0,    4.6,    4.1,    3.3,    2.8,    2.5,    3.4,    3.5,    3.5,    3.5,    3.4,    4.0,    5.0,    4.3,    5.5,    5.6,  999.0,  999.0,  999.0,  999.0,  999.0,  999.0,  999.0,  999.0,  999.0,  999.0,  999.0,  999.0,    4.8,    3.0,  999.0,  999.0,  999.0,  999.0,  999.0,  999.0,  999.0,  999.0,  999.0,  999.0,  999.0,  999.0,  999.0,  999.0,  999.0,  999.0,  999.0,  999.0,  999.0,  999.0,  999.0,  999.0,  999.0,  999.0,  999.0,  999.0,  999.0,  999.0,  999.0,  999.0,  999.0
2010/10/19 02:00,   -0.3,   -0.2,   -0.0,   -0.0,    0.2,    0.4,    0.3,    0.6,    1.2,    1.0,    1.6,    1.2,    1.0,    0.8,    1.0,    1.0,    1.4,    1.5,  999.0,    2.6,    3.2,    3.5,    3.7,    3.5,    3.6,    4.1,    3.6,    3.7,    4.8,    4.9,    5.1,    5.4,    4.5,    5.5,    3.9,    5.1,    5.3,    5.1,    4.7,    4.2,    3.2,    3.0,    3.0,    3.5,    4.0,    3.8,    4.2,    4.2,    5.4,  999.0,    6.1,    5.9,  999.0,  999.0,  999.0,  999.0,  999.0,  999.0,  999.0,  999.0,  999.0,  999.0,  999.0,  999.0,  999.0,  999.0,    4.2,  999.0,  999.0,  999.0,  999.0,  999.0,  999.0,  999.0,  999.0,  999.0,  999.0,  999.0,  999.0,  999.0,  999.0,  999.0,  999.0,  999.0,  999.0,  999.0,  999.0,  999.0,  999.0,  999.0,  999.0,  999.0,  999.0,  999.0,  999.0,  999.0,  999.0,  999.0
2010/10/19 02:10,   -0.1,   -0.3,   -0.2,  999.0,    0.4,    0.3,    0.7,    1.0,    1.4,    1.6,    1.9,    1.8,    1.2,    0.7,    0.7,    1.1,    1.6,    1.7,    2.2,    2.0,    2.9,    3.5,    3.2,    2.7,    3.0,    3.3,    3.0,    3.8,    4.5,    4.7,    4.4,    4.2,    4.4,    4.3,    4.6,    4.5,    4.5,    4.2,    4.3,    4.3,    3.7,    3.1,    2.3,    2.6,    3.4,    3.3,    2.8,    3.3,    4.0,    4.8,  999.0,    5.5,  999.0,  999.0,  999.0,  999.0,  999.0,  999.0,  999.0,    6.3,    7.2,  999.0,  999.0,  999.0,  999.0,  999.0,  999.0,  999.0,  999.0,  999.0,  999.0,  999.0,  999.0,  999.0,  999.0,  999.0,  999.0,  999.0,  999.0,  999.0,  999.0,  999.0,  999.0,    1.2,  999.0,  999.0,  999.0,  999.0,  999.0,  999.0,  999.0,  999.0,  999.0,  999.0,  999.0,  999.0,  999.0,  999.0
2010/10/19 02:20,  999.0,    0.1,   -0.4,  999.0,    0.4,  999.0,  999.0,    0.9,    0.7,    0.7,    0.9,    1.2,    1.0,    0.6,    0.4,    0.6,    0.8,    0.9,    0.9,    1.9,    2.2,    3.0,  999.0,    2.6,    3.3,    3.2,    3.8,    4.6,    4.4,    4.4,    4.3,    4.7,    4.9,    5.4,    5.4,    5.3,    5.4,  999.0,    4.6,    4.6,    4.2,    3.2,    3.1,    3.5,    3.9,    3.7,    3.2,    3.4,    4.5,    5.7,  999.0,  999.0,  999.0,  999.0,  999.0,  999.0,  999.0,  999.0,  999.0,  999.0,  999.0,  999.0,  999.0,  999.0,  999.0,  999.0,    3.0,    1.9,    0.6,    0.4,    0.0,    0.1,    0.2,    0.1,   -0.0,   -0.7,   -0.8,   -0.8,  999.0,    0.3,    1.6,    0.9,    1.4,    1.6,    1.5,  999.0,    1.4,  999.0,  999.0,  999.0,  999.0,  999.0,  999.0,  999.0,  999.0,  999.0,  999.0,  999.0
2010/10/19 02:30,   -0.1,   -0.2,   -0.3,    0.2,    0.5,    0.6,    0.6,    0.4,    0.4,    0.2,    0.5,    0.6,    1.1,    0.9,    0.7,    0.6,    0.6,    0.5,    1.0,    1.9,    2.2,    2.7,    2.1,    2.5,    3.1,    3.3,    3.7,    4.2,    4.3,    4.0,    3.8,    4.7,    4.5,    5.4,    5.7,    5.2,    5.9,    5.8,    5.9,    5.5,    5.3,    3.5,    3.5,    3.6,    3.9,    3.7,    3.6,  999.0,    4.6,    5.3,    5.9,    6.3,  999.0,  999.0,  999.0,  999.0,    5.4,  999.0,  999.0,  999.0,  999.0,  999.0,  999.0,  999.0,    5.7,    4.8,    4.1,    2.5,    1.3,   -0.0,   -0.2,   -0.4,   -0.3,   -0.5,   -0.5,   -0.9,   -1.0,   -1.0,   -0.5,    0.1,    0.4,    0.5,    0.9,    1.5,    1.3,    0.8,    0.6,    0.4,  999.0,  999.0,  999.0,  999.0,  999.0,  999.0,  999.0,  999.0,  999.0,  999.0
2010/10/19 02:40,   -0.2,   -0.7,  999.0,  999.0,   -0.1,    0.2,    0.0,    0.0,   -0.0,    0.1,    0.4,    0.5,    0.6,    0.8,    0.7,    1.1,    1.2,    1.6,    2.3,    2.7,    2.6,    2.4,    2.5,    2.9,    3.5,    3.2,    3.4,    3.9,    3.8,    4.2,    4.3,    4.4,    4.4,    4.7,    5.1,  999.0,    5.5,    5.6,    5.6,    4.8,    4.3,    3.7,    4.0,    3.6,    3.5,    3.7,    3.9,    4.0,    3.8,    4.4,    5.7,    5.9,    5.8,  999.0,  999.0,  999.0,  999.0,  999.0,  999.0,  999.0,  999.0,  999.0,  999.0,  999.0,    6.2,    6.3,    5.8,    3.8,    2.1,    0.5,   -0.3,    0.1,    0.2,    0.2,    0.0,   -0.4,   -0.9,   -0.9,   -1.0,   -0.0,    0.4,    0.5,    1.0,    1.5,    1.6,    1.2,    0.8,    0.4,    0.5,    0.7,    1.2,    1.8,    1.9,  999.0,  999.0,  999.0,  999.0,  999.0
2010/10/19 02:50,   -0.7,   -1.0,   -0.1,   -0.6,    0.7,    0.1,    0.1,   -0.2,   -0.6,    0.2,    0.3,    0.6,    0.4,    1.0,    1.4,    1.3,    1.9,    2.3,    2.4,    2.4,    2.4,  999.0,    2.2,    3.0,    3.1,    3.0,    3.4,    3.9,    4.2,    4.4,    4.3,    4.0,    4.0,    4.1,    4.4,    4.9,    4.4,    4.9,    4.8,    4.1,    4.1,    3.6,    3.3,    3.2,    2.8,    2.9,    2.9,    2.7,    3.1,    3.8,    4.4,    5.4,    6.2,    6.3,    6.6,  999.0,  999.0,  999.0,  999.0,  999.0,    5.7,  999.0,  999.0,  999.0,    6.4,    5.5,    4.6,    3.0,    1.2,   -0.1,   -0.3,   -0.2,    0.0,   -0.0,   -0.5,   -0.9,   -1.4,   -1.6,   -1.0,   -0.0,    0.6,    0.8,    1.2,    1.6,    1.6,    1.5,    1.2,    1.1,    1.0,    1.6,    1.9,    1.8,  999.0,  999.0,  999.0,  999.0,  999.0,  999.0
2010/10/19 03:00,   -0.4,  999.0,  999.0,  999.0,    0.2,    0.8,    0.7,    1.2,    0.5,    0.4,    0.5,    0.9,    1.3,    0.7,    0.9,    0.5,    0.9,    1.4,    2.0,    2.1,    2.2,    2.4,    2.8,    3.4,    3.3,    3.6,    3.9,    4.4,    4.3,    3.9,    3.4,    3.9,    3.7,    4.9,    4.0,    4.1,    4.4,    4.4,    4.6,    4.2,    4.0,    3.9,    4.0,    3.7,    3.2,    3.4,    3.0,    2.8,    2.8,    3.0,    3.8,    4.9,    5.7,    5.8,    5.8,  999.0,  999.0,  999.0,  999.0,  999.0,  999.0,  999.0,  999.0,  999.0,  999.0,    4.8,    4.5,    2.9,    0.8,   -0.4,   -0.6,   -0.4,   -0.3,   -0.6,   -1.1,   -0.9,   -1.6,   -1.7,   -1.1,   -0.2,    0.3,    0.6,    1.0,    1.2,    1.0,    0.7,    0.6,    0.3,    0.2,  999.0,  999.0,  999.0,  999.0,  999.0,  999.0,  999.0,  999.0,  999.0
2010/10/19 03:10,   -0.9,   -0.2,   -0.1,   -0.0,  999.0,    1.0,    1.5,    1.6,    1.5,    0.8,    0.8,    0.9,    0.9,    0.9,    1.2,    1.5,    1.6,    1.7,    2.2,    2.2,    2.4,    2.6,    3.1,    2.7,    2.8,    3.4,    3.7,    3.8,    3.1,    3.2,    2.4,    2.4,    2.2,    2.5,    3.5,    4.2,    4.3,    4.1,    3.8,    3.9,    3.6,    3.7,    3.3,    2.7,    2.6,    2.6,    1.9,    1.8,    2.1,    2.6,    3.5,    4.5,    5.6,  999.0,    5.4,  999.0,  999.0,  999.0,  999.0,  999.0,  999.0,  999.0,  999.0,  999.0,  999.0,  999.0,    5.0,    2.0,    0.9,   -0.4,   -0.4,   -0.1,    0.2,    0.6,  999.0,  999.0,   -1.3,   -1.6,   -1.1,   -0.5,    0.3,    0.6,    0.8,    1.2,    1.1,    0.8,    0.6,    0.7,    0.7,    0.6,  999.0,  999.0,  999.0,  999.0,  999.0,  999.0,  999.0,  999.0
2010/10/19 03:20,  999.0,  999.0,    0.5,   -1.1,   -0.1,    0.7,  999.0,    1.0,    1.2,    0.8,    0.9,    1.1,    1.0,    1.1,    1.7,    2.2,    2.4,    2.6,    2.7,    3.1,    3.4,    3.6,    3.8,    3.6,    3.3,    3.7,    3.8,    3.4,    3.9,    2.9,    2.3,    2.3,    2.3,    2.5,    2.8,    3.4,    3.7,    3.7,    4.1,    3.9,    3.7,    3.7,    3.4,    3.1,    3.3,    3.3,    2.7,    2.8,    2.7,    3.4,    4.6,    6.0,    6.2,    7.7,    7.0,  999.0,    6.1,  999.0,  999.0,  999.0,  999.0,  999.0,  999.0,    7.0,  999.0,  999.0,  999.0,  999.0,  999.0,   -1.7,  999.0,  999.0,  999.0,  999.0,  999.0,   -1.2,   -1.7,   -2.2,   -1.7,   -0.7,    0.2,    0.3,    0.5,    0.7,    0.5,    0.4,    0.2,   -0.0,   -0.1,  999.0,  999.0,  999.0,  999.0,  999.0,  999.0,  999.0,  999.0,  999.0
2010/10/19 03:30,  999.0,    0.1,  999.0,   -0.3,   -0.3,    0.1,    0.2,    0.9,    0.7,    0.8,    0.7,    0.7,    0.6,    0.9,    1.2,    1.9,    2.2,    2.5,    2.6,    3.4,    3.5,    3.9,    4.3,    3.5,    2.8,    3.5,    3.3,    3.6,    3.8,    3.0,    2.9,    2.8,    2.4,    2.3,    2.6,    3.3,    3.4,    3.5,    3.5,    3.3,    3.3,    2.8,    2.4,    2.9,    3.0,    2.9,    2.7,    2.5,    2.9,    3.4,    5.0,    5.6,    6.3,    6.2,    6.2,    5.2,    6.0,  999.0,  999.0,  999.0,  999.0,  999.0,  999.0,  999.0,  999.0,  999.0,  999.0,  999.0,  999.0,  999.0,  999.0,  999.0,  999.0,  999.0,  999.0,  999.0,  999.0,  999.0,  999.0,  999.0,  999.0,  999.0,  999.0,  999.0,  999.0,  999.0,  999.0,  999.0,  999.0,  999.0,  999.0,  999.0,  999.0,  999.0,  999.0,  999.0,  999.0,  999.0
2010/10/19 03:40,  999.0,  999.0,  999.0,  999.0,   -0.8,    0.1,    0.5,    0.8,    1.0,    0.9,    0.8,    0.6,    0.5,    0.7,    1.4,    2.0,    2.3,    2.8,    2.8,    3.9,    4.6,    4.5,    4.5,    4.0,    4.1,    4.3,    4.2,    4.2,    4.4,    3.7,    3.6,    2.3,    2.6,    2.8,    3.7,    3.9,    4.4,    4.2,    4.0,    3.9,    3.3,    3.1,    3.1,    3.1,    3.4,    3.2,    3.2,    3.2,    3.7,    5.0,    5.7,    6.6,    6.3,    6.1,    6.2,    5.8,  999.0,  999.0,  999.0,  999.0,  999.0,  999.0,  999.0,  999.0,  999.0,  999.0,  999.0,  999.0,  999.0,  999.0,  999.0,  999.0,  999.0,  999.0,  999.0,  999.0,  999.0,  999.0,  999.0,  999.0,  999.0,  999.0,  999.0,  999.0,  999.0,  999.0,  999.0,  999.0,  999.0,  999.0,  999.0,  999.0,  999.0,  999.0,  999.0,    2.1,  999.0,    1.7
2010/10/19 03:50,   -0.6,   -0.8,   -1.1,   -0.9,   -0.8,   -0.0,    0.5,    0.7,    0.4,    0.4,    0.4,    0.1,    0.2,    0.7,    1.6,    2.0,    2.6,    2.5,    2.7,    3.4,    3.8,    4.1,    3.9,    3.7,    3.6,    3.9,    3.8,    3.7,    3.3,    3.5,    2.2,    1.9,    1.9,    2.2,    3.0,    2.4,    3.2,    3.4,    3.1,    3.2,    3.7,    3.0,    2.5,    2.4,    2.5,    2.5,    2.6,  999.0,    3.2,    3.7,    5.1,    6.1,    6.5,    6.0,    5.4,  999.0,  999.0,  999.0,  999.0,  999.0,  999.0,  999.0,  999.0,  999.0,  999.0,  999.0,  999.0,  999.0,  999.0,  999.0,  999.0,  999.0,  999.0,  999.0,  999.0,  999.0,  999.0,  999.0,  999.0,  999.0,  999.0,  999.0,  999.0,  999.0,  999.0,  999.0,  999.0,  999.0,    0.2,    0.6,    1.2,    1.4,    1.5,    1.8,    1.7,    1.4,    1.5,    1.6
2010/10/19 04:00,   -0.5,   -0.6,   -1.0,  999.0,   -1.0,   -0.4,   -0.7,   -0.2,    0.0,    0.5,    0.4,    0.0,   -0.1,    0.0,    1.4,  999.0,    2.1,    2.6,    3.4,    3.9,    4.2,    4.5,    4.4,    4.3,    4.1,    4.2,    4.4,    4.4,    3.4,  999.0,    3.0,    2.7,    2.7,    3.0,    2.8,    3.3,    4.0,    3.7,    3.7,    4.2,    4.2,    4.2,    3.8,    3.4,    2.9,    3.2,    3.7,    4.8,    3.8,    4.5,    5.4,    7.1,  999.0,  999.0,    5.4,    5.0,  999.0,  999.0,  999.0,  999.0,  999.0,  999.0,  999.0,  999.0,  999.0,  999.0,  999.0,  999.0,  999.0,  999.0,  999.0,  999.0,  999.0,  999.0,  999.0,  999.0,  999.0,  999.0,  999.0,  999.0,  999.0,  999.0,  999.0,  999.0,    2.1,    1.5,    0.4,    0.2,    0.4,    0.9,    1.5,    2.2,    2.5,    2.5,    2.5,    2.0,    1.7,    1.9
2010/10/19 04:10,   -0.0,   -0.0,   -0.6,   -1.1,   -0.7,   -0.1,    0.1,    0.7,  999.0,  999.0,    0.5,    0.7,    1.0,    0.7,    1.0,    2.4,    3.0,    3.4,    4.0,    4.5,    4.8,    4.7,    5.0,  999.0,    3.6,    4.1,    4.2,    4.3,    4.2,    3.4,    3.3,    3.0,    3.0,    3.1,    3.4,    3.8,    4.6,    4.9,    4.3,    4.7,    4.6,    4.4,    3.7,    3.5,    2.9,    2.9,    3.5,    4.1,    4.1,    4.7,    5.8,  999.0,  999.0,    5.0,    4.6,    4.7,    4.5,    4.8,  999.0,  999.0,  999.0,  999.0,  999.0,  999.0,  999.0,  999.0,  999.0,  999.0,  999.0,  999.0,  999.0,  999.0,  999.0,  999.0,  999.0,  999.0,    0.2,    0.7,    1.6,    2.3,    2.3,    2.1,    2.1,    2.4,    2.3,    1.8,    1.1,    0.6,    0.1,    0.1,    0.6,    0.9,    1.4,    1.6,    1.7,    1.4,    1.1,    1.0
2010/10/19 04:20,   -0.3,   -0.1,   -0.5,   -0.2,   -0.3,    0.2,    0.3,    0.4,    0.8,    0.6,    0.5,    0.7,    0.6,    0.8,    0.7,    1.8,    2.7,    2.8,    3.6,    4.0,    4.4,    4.7,    4.7,  999.0,    4.1,    4.0,    3.9,    3.4,    3.1,    2.4,    2.4,    2.5,    2.4,    2.6,    2.9,    3.5,    4.2,    4.0,    2.8,    3.2,    2.9,    2.7,    2.1,    1.8,    2.2,    3.1,    3.4,    2.8,  999.0,  999.0,  999.0,  999.0,  999.0,    4.2,    4.0,    4.0,    3.6,  999.0,  999.0,  999.0,  999.0,  999.0,  999.0,  999.0,  999.0,  999.0,  999.0,  999.0,  999.0,  999.0,  999.0,  999.0,  999.0,  999.0,   -0.6,   -0.5,   -0.4,   -0.3,    0.4,    1.3,    1.6,    1.5,    1.5,    2.0,    2.0,    1.5,    0.8,    0.1,   -0.3,   -0.4,   -0.3,    0.2,    0.9,    1.1,    1.3,    1.3,    0.9,    0.6
2010/10/19 04:30,   -0.3,   -0.4,   -1.2,   -0.9,   -0.2,   -0.1,    0.0,    0.3,    0.4,    0.8,    1.3,    1.2,    1.1,    1.1,    1.3,    2.2,    2.6,    2.8,    3.6,    4.2,    4.7,    4.7,    4.6,  999.0,    4.6,    4.4,    4.1,    3.9,    3.5,    3.0,    3.1,    2.9,    2.5,    2.6,    3.0,    3.9,    4.4,    3.9,    2.6,    2.5,    2.4,    1.7,    1.9,    1.6,    2.4,    3.0,    3.5,  999.0,    5.2,  999.0,  999.0,    6.0,  999.0,    4.3,    3.8,    4.0,  999.0,  999.0,  999.0,  999.0,  999.0,  999.0,  999.0,  999.0,  999.0,  999.0,  999.0,  999.0,  999.0,  999.0,  999.0,  999.0,   -1.0,   -0.9,   -0.9,   -0.9,   -1.1,   -1.0,   -0.9,   -0.2,    0.7,    0.9,    1.2,    1.4,    1.9,    1.9,    1.4,    0.5,   -0.3,   -0.5,   -0.4,   -0.1,    0.5,    0.8,    1.1,    1.2,    1.2,    0.9
2010/10/19 04:40,   -0.5,   -1.6,   -1.8,   -1.1,   -0.6,    0.3,    0.4,    0.4,    0.5,    0.5,    0.5,    0.5,    0.5,    0.4,    0.8,    1.5,    2.6,    2.7,    3.1,    3.5,    4.1,    4.1,    4.0,    5.2,    4.8,    4.1,    3.3,    3.1,    2.8,    2.3,    1.8,  999.0,    1.7,    2.1,    2.6,    3.0,    2.8,    2.3,    2.1,    2.3,    1.4,    2.0,    1.7,    2.0,    3.0,    3.8,    4.6,    4.8,    5.4,    5.7,    5.8,    6.2,    5.6,    4.8,    4.0,    3.8,  999.0,  999.0,  999.0,  999.0,    8.1,  999.0,  999.0,  999.0,  999.0,  999.0,  999.0,  999.0,  999.0,    0.0,   -0.2,    0.1,   -0.1,   -0.9,   -1.1,   -1.0,   -1.1,   -1.4,   -1.2,   -0.9,   -0.1,    0.6,    0.6,    0.8,    1.2,    1.3,    1.0,    0.1,   -0.7,   -0.9,   -0.8,   -0.6,   -0.1,    0.6,    1.2,    1.4,    1.4,    1.3
2010/10/19 04:50,  999.0,   -1.4,   -1.6,   -1.3,   -0.9,  999.0,    0.3,    0.2,    0.4,    0.4,    0.4,    0.7,    0.4,    0.7,    1.2,    2.3,    2.8,    3.4,    4.0,    4.4,    4.8,    5.0,    5.0,    5.0,  999.0,    4.2,    3.8,    3.5,    3.1,    3.0,    2.4,    2.0,    2.1,    2.7,    2.9,    3.0,    3.0,    1.8,    2.2,    2.8,  999.0,  999.0,    2.1,    2.8,    3.8,    4.3,  999.0,  999.0,    5.6,    6.1,    6.6,  999.0,    6.9,  999.0,    5.1,  999.0,  999.0,  999.0,  999.0,  999.0,  999.0,    7.0,  999.0,  999.0,  999.0,  999.0,    2.0,    1.2,    0.8,   -0.1,    0.2,    0.4,    0.1,   -0.8,   -1.4,   -1.6,   -1.6,   -1.8,   -1.5,   -0.9,   -0.2,    0.5,    0.7,    0.8,    1.0,    1.1,    0.6,   -0.2,   -1.0,   -1.3,   -1.2,   -1.0,   -0.6,   -0.1,    0.5,    0.8,    1.0,    1.0
2010/10/19 05:00,  999.0,  999.0,  999.0,  999.0,  999.0,  999.0,  999.0,   -0.4,    0.3,    0.7,    0.7,    0.5,    0.6,    0.9,    1.4,    2.1,    3.4,    3.8,    4.7,    4.4,    4.7,    4.9,    4.8,    4.7,    5.2,    4.6,    4.1,    3.6,    3.2,    3.0,    2.8,    2.1,    2.1,    2.8,    3.0,    2.9,    2.8,    2.2,    2.1,    2.6,    2.5,    2.2,    2.3,    2.3,    3.5,    3.4,  999.0,    4.3,    5.0,    5.5,  999.0,  999.0,  999.0,  999.0,  999.0,    4.3,  999.0,  999.0,  999.0,  999.0,  999.0,  999.0,  999.0,    5.5,    5.5,    4.0,    2.1,    1.0,    0.0,   -0.0,    0.2,   -0.3,   -1.1,   -1.7,   -1.8,   -1.7,   -2.0,   -2.1,   -1.6,   -1.2,   -0.4,    0.1,    0.4,    0.7,    1.0,    0.9,    0.1,   -0.6,   -1.2,   -1.3,   -1.0,   -0.6,   -0.3,    0.4,    1.0,    1.3,    1.5,    1.3
2010/10/19 05:10,  999.0,  999.0,  999.0,  999.0,  999.0,   -0.0,    0.3,    0.7,    0.9,    1.1,    1.2,    1.1,    0.9,    0.9,    1.3,    1.6,    2.5,    3.2,    3.5,    3.7,    4.0,    3.8,    4.3,    4.4,    4.6,    4.4,    4.3,    3.6,    3.1,    2.5,    2.5,    1.9,    2.1,    2.7,    3.0,    2.5,    2.2,    1.7,    1.6,    1.8,    2.1,    1.7,    2.1,    2.4,    3.2,    4.0,    3.6,  999.0,    4.8,    4.9,    5.1,  999.0,  999.0,  999.0,    5.0,  999.0,  999.0,  999.0,  999.0,  999.0,  999.0,  999.0,    5.5,    5.4,    4.6,    2.7,    1.5,    0.4,   -0.1,    0.2,   -0.2,   -1.2,   -2.0,   -2.1,   -2.0,   -1.8,   -1.8,   -1.8,   -1.2,   -0.7,   -0.0,    0.5,    0.8,    0.9,    1.1,    0.7,    0.0,   -0.5,   -0.6,   -0.6,   -0.5,   -0.3,    0.1,    0.5,    1.0,    1.2,    1.3,    1.1
2010/10/19 05:20,  999.0,  999.0,  999.0,  999.0,   -0.4,  999.0,  999.0,  999.0,    1.1,    1.0,    1.3,    1.7,    1.5,    1.3,    1.2,    1.4,    1.9,    2.8,    3.2,    3.4,    3.7,    4.3,    4.5,    4.7,    4.9,    4.9,    3.8,    3.8,    3.2,    2.2,    2.6,    2.0,    2.0,    2.6,    2.6,    2.5,    2.8,    1.7,    1.3,    2.1,    2.1,    1.5,    1.8,    2.3,    2.9,  999.0,    3.9,    4.0,    5.2,    5.3,    5.3,    5.8,    5.8,    6.0,    5.3,  999.0,  999.0,  999.0,  999.0,  999.0,  999.0,  999.0,  999.0,    5.5,    5.3,    3.6,    2.2,    1.3,    0.7,    0.6,   -0.1,   -1.7,   -2.3,   -2.1,   -1.9,   -1.6,   -1.4,   -1.3,   -1.0,   -0.6,   -0.0,    0.4,    0.6,    0.8,    0.4,   -0.3,   -0.6,   -0.5,    0.0,    0.2,   -0.2,   -0.5,   -0.3,   -0.1,    0.5,    1.0,    1.1,  999.0
2010/10/19 05:30,  999.0,  999.0,  999.0,  999.0,   -0.4,    0.5,  999.0,    0.8,    0.7,    0.5,    0.5,    0.9,    1.2,    1.2,    1.0,    1.2,    1.7,    2.9,    3.2,    3.5,    3.7,    4.4,    4.4,    4.5,    4.5,    4.3,    3.8,    3.9,    3.3,    2.5,    2.3,    1.9,    2.1,    2.8,    2.8,    2.4,    2.6,    1.7,    1.7,    2.5,    1.8,    1.5,    1.9,    2.4,    2.3,  999.0,    3.4,    3.7,  999.0,    4.9,    5.0,    5.2,    5.8,    5.3,    4.8,  999.0,  999.0,    7.6,  999.0,  999.0,  999.0,  999.0,  999.0,    4.9,    4.7,    3.9,    2.8,    1.9,    0.8,    0.5,   -0.3,   -1.9,   -2.8,   -3.0,   -2.9,   -2.5,   -2.1,   -1.7,   -1.3,   -0.6,    0.0,    0.4,    0.7,    0.8,    0.4,   -0.1,   -0.3,   -0.2,    0.5,    0.9,    0.6,   -0.3,   -0.2,    0.1,    0.1,    0.7,  999.0,  999.0
2010/10/19 05:40,  999.0,  999.0,  999.0,  999.0,  999.0,    0.9,    1.4,    1.3,    0.9,    0.7,    0.3,    0.8,    0.7,    0.9,    1.0,    1.2,    1.6,    2.7,    3.3,    3.7,    3.2,    3.4,    3.6,    3.8,    3.5,    3.4,    3.5,    3.7,    2.7,    2.1,    2.2,    2.3,    2.7,    2.8,    3.0,    2.6,    2.5,    2.0,    2.7,    2.9,    2.1,    1.7,    2.0,    2.3,  999.0,  999.0,    2.7,    3.7,    4.2,    4.6,    5.0,    5.0,    5.3,    4.5,    4.7,    5.3,    5.1,    6.1,  999.0,  999.0,  999.0,  999.0,  999.0,  999.0,    5.5,    4.6,    3.2,    1.5,    0.5,    0.2,   -0.6,   -1.7,   -2.6,   -3.2,   -3.1,   -2.8,   -1.8,   -1.5,   -1.1,   -0.3,    0.2,    0.5,    0.7,    0.6,    0.2,   -0.1,   -0.3,   -0.2,    0.4,    0.7,   -0.2,   -0.5,  999.0,  999.0,  999.0,  999.0,  999.0,  999.0
2010/10/19 05:50,  999.0,  999.0,  999.0,    0.2,    0.9,    2.0,    2.3,    2.1,    1.7,    1.1,    0.6,    0.0,    0.4,    0.5,    0.5,    1.0,    1.1,    2.0,    2.9,    2.9,    2.6,    2.6,    2.9,    2.9,    3.0,    2.8,  999.0,    3.3,    2.1,    2.1,    2.1,    2.9,    2.9,    3.3,    3.0,    2.2,    1.9,    1.9,    2.4,    2.4,    1.8,    1.9,  999.0,    2.4,  999.0,  999.0,    3.0,    4.3,    4.2,    4.5,  999.0,    5.6,    5.3,    5.1,    5.9,  999.0,  999.0,  999.0,  999.0,  999.0,  999.0,    6.7,    6.1,  999.0,  999.0,  999.0,    4.5,    1.3,    0.7,    0.3,   -0.3,   -1.2,   -1.8,   -2.5,   -2.8,   -2.6,   -1.7,   -1.2,   -0.6,    0.4,    0.7,    0.7,    0.8,    0.6,    0.1,    0.0,   -0.0,    0.1,    0.4,    0.8,    0.5,  999.0,  999.0,  999.0,  999.0,  999.0,  999.0,  999.0
2010/10/19 06:00,   -0.1,  999.0,   -0.7,    0.3,    1.3,    2.1,    2.2,    2.4,    2.2,    1.8,    1.3,    0.4,    0.1,    0.3,    0.7,    0.8,    1.2,    2.5,    3.1,    2.9,    2.7,    2.9,    2.7,    2.9,    2.9,  999.0,    3.2,    2.6,    2.4,    2.5,    3.0,    3.5,    3.5,  999.0,    3.0,    2.7,    2.0,    2.0,    2.5,    1.9,    1.9,    1.8,    1.9,    2.5,  999.0,  999.0,    3.5,  999.0,    4.0,    4.2,  999.0,    4.9,    5.3,  999.0,    4.6,  999.0,  999.0,  999.0,  999.0,  999.0,  999.0,  999.0,  999.0,  999.0,  999.0,  999.0,  999.0,  999.0,  999.0,  999.0,  999.0,  999.0,  999.0,  999.0,  999.0,  999.0,   -0.7,   -0.4,    0.2,    1.0,    1.3,    1.1,    0.8,    0.3,    0.2,    0.1,    0.2,    0.5,  999.0,    1.1,  999.0,  999.0,  999.0,  999.0,  999.0,  999.0,  999.0,  999.0
2010/10/19 06:10,   -0.9,  999.0,   -0.1,    0.6,    1.3,    1.6,    1.3,    1.5,    1.9,    1.7,    1.1,    0.5,   -0.3,    0.0,    0.1,    0.5,    1.2,    2.2,    2.5,    2.2,    2.5,    2.8,    2.8,    2.9,  999.0,    3.2,    3.5,    2.7,    2.5,    2.6,    3.2,    3.5,    3.8,    3.5,    3.0,    1.9,    1.6,    1.9,    1.6,    1.4,    1.7,  999.0,    2.2,    2.4,  999.0,  999.0,  999.0,    3.4,    3.8,    4.3,    4.7,  999.0,  999.0,  999.0,  999.0,  999.0,  999.0,  999.0,  999.0,  999.0,  999.0,  999.0,  999.0,  999.0,  999.0,  999.0,  999.0,  999.0,  999.0,  999.0,  999.0,  999.0,  999.0,  999.0,  999.0,  999.0,  999.0,   -0.5,   -0.1,    0.2,    0.5,    0.7,    0.7,    0.4,   -0.0,    0.0,    0.2,    0.5,    1.2,    1.1,    1.0,  999.0,  999.0,  999.0,  999.0,  999.0,  999.0,  999.0
2010/10/19 06:20,   -1.0,   -1.5,   -0.1,    0.5,    0.9,    0.9,    1.5,    1.6,    1.3,    1.2,    1.2,    0.6,    0.1,    0.0,    0.5,    0.7,    1.5,    2.5,    2.7,    2.3,    2.5,    2.7,    2.8,    2.7,    2.7,    3.2,    3.4,    3.1,    2.6,    2.9,    3.3,    3.8,  999.0,    3.6,    2.6,    1.9,    1.8,    2.3,    1.7,    1.4,    1.8,    2.0,    2.4,    2.5,  999.0,  999.0,  999.0,  999.0,    3.6,    3.9,    4.2,  999.0,  999.0,  999.0,    3.5,  999.0,  999.0,  999.0,  999.0,  999.0,  999.0,  999.0,  999.0,  999.0,  999.0,  999.0,  999.0,  999.0,  999.0,  999.0,  999.0,  999.0,  999.0,  999.0,  999.0,  999.0,   -0.6,    0.3,    1.1,    1.2,    1.3,    1.2,    1.1,    0.9,    0.6,    0.3,    0.1,    0.6,    0.9,    1.1,    1.1,  999.0,  999.0,  999.0,  999.0,  999.0,  999.0,  999.0
2010/10/19 06:30,   -0.4,   -0.7,    0.5,    0.9,    1.0,    1.6,    2.0,    1.8,    1.8,    1.6,    1.2,    0.9,    0.8,    0.5,    0.2,    0.7,    1.3,    2.0,    2.8,    2.8,    2.6,    2.9,    2.9,    2.7,    2.6,    3.2,    3.6,    3.0,    2.4,    2.8,    3.5,  999.0,    3.3,    3.6,    2.2,    1.6,    2.1,    2.0,    1.7,    1.6,    1.9,    2.2,    2.1,    2.3,  999.0,  999.0,  999.0,  999.0,  999.0,    3.9,    3.7,    3.9,    4.0,    3.9,    3.6,  999.0,  999.0,  999.0,  999.0,  999.0,  999.0,  999.0,  999.0,  999.0,  999.0,  999.0,  999.0,  999.0,  999.0,  999.0,  999.0,  999.0,  999.0,  999.0,  999.0,   -2.1,   -1.6,   -0.8,   -0.2,    0.3,    0.6,    0.6,    0.6,    0.7,    1.0,    0.6,    0.3,    0.4,    1.0,    1.2,  999.0,  999.0,  999.0,  999.0,  999.0,  999.0,  999.0,  999.0
2010/10/19 06:40,   -0.6,  999.0,    1.3,    1.6,    2.4,    2.5,    2.3,    2.5,    2.3,    2.4,    1.9,    1.6,    1.1,    0.7,    0.6,    1.0,    1.5,    2.1,    2.6,    2.6,    2.3,    2.7,    2.8,    2.9,    2.3,    2.3,    2.9,    3.2,    2.4,    2.4,    3.4,  999.0,    3.3,    3.0,    1.9,  999.0,    1.9,    1.4,    1.1,    1.3,    1.6,    1.9,    2.1,    2.4,  999.0,  999.0,  999.0,  999.0,    2.7,  999.0,    3.3,    3.7,  999.0,  999.0,  999.0,  999.0,  999.0,  999.0,  999.0,  999.0,  999.0,  999.0,  999.0,  999.0,  999.0,  999.0,  999.0,  999.0,  999.0,  999.0,  999.0,  999.0,   -1.1,   -1.3,   -1.6,   -2.2,   -2.0,   -1.2,   -0.5,   -0.3,    0.0,   -0.1,   -0.1,    0.1,    0.6,    0.5,   -0.2,   -0.2,  999.0,  999.0,  999.0,  999.0,  999.0,  999.0,  999.0,  999.0,  999.0,  999.0
2010/10/19 06:50,   -0.3,    0.7,    1.3,    2.3,    2.4,    2.0,    2.0,    2.6,    2.7,    2.1,    1.9,    1.7,    1.2,    1.0,    1.4,    1.7,    2.1,    2.6,    3.6,    3.3,    2.4,    2.3,    2.4,    2.7,    2.7,    1.8,  999.0,    2.8,    2.2,    2.5,    3.3,    3.7,    3.5,    3.1,    2.0,  999.0,    2.5,    2.0,    1.6,    1.2,    1.5,    1.6,    1.6,    1.9,  999.0,  999.0,    2.2,    2.4,    2.5,    2.8,    2.9,    3.7,  999.0,  999.0,  999.0,  999.0,  999.0,  999.0,  999.0,  999.0,  999.0,  999.0,  999.0,  999.0,  999.0,  999.0,  999.0,  999.0,  999.0,  999.0,  999.0,  999.0,   -1.4,   -1.5,   -2.0,   -2.7,   -2.9,   -2.0,   -1.2,   -0.8,   -0.3,   -0.5,    0.2,  999.0,    0.9,    1.2,    0.5,  999.0,  999.0,  999.0,  999.0,  999.0,  999.0,  999.0,  999.0,  999.0,  999.0,  999.0
2010/10/19 07:00,   -0.2,    0.5,    1.8,    2.1,    1.5,    1.2,    1.9,    2.9,    3.1,    2.7,    2.3,    1.8,    1.9,    2.0,    2.0,    2.5,    3.1,    3.8,    4.1,    3.7,    2.6,    2.2,    2.6,  999.0,    2.4,    2.2,    1.7,    2.3,    2.2,    2.1,    3.0,    3.6,    3.8,    3.6,    2.3,    1.5,    1.4,    2.0,    1.1,  999.0,    0.9,    0.8,    1.3,    1.6,    1.6,  999.0,    2.1,    2.9,    2.8,    3.1,  999.0,    3.1,  999.0,  999.0,  999.0,  999.0,  999.0,  999.0,  999.0,  999.0,    5.6,    5.8,    5.9,    6.0,  999.0,  999.0,  999.0,  999.0,  999.0,  999.0,  999.0,   -0.6,   -1.1,   -1.8,   -2.4,   -3.1,   -3.8,   -3.3,   -2.4,   -1.3,   -0.9,  999.0,  999.0,    0.0,  999.0,    0.4,  999.0,  999.0,  999.0,  999.0,  999.0,  999.0,  999.0,  999.0,  999.0,  999.0,  999.0,  999.0
2010/10/19 07:10,   -0.0,    0.3,    1.6,    1.2,    1.0,    1.1,    1.3,    2.0,    2.4,    2.5,    2.3,    2.0,    2.0,    2.1,    2.5,    3.1,    3.7,    4.0,    3.8,    3.7,    3.0,    2.7,    2.6,    2.8,    2.8,    2.1,    1.6,    2.3,    2.2,    1.8,    2.3,    2.7,    3.2,    3.4,    3.3,    2.2,    1.2,    1.7,    1.5,    0.8,    1.0,    0.5,    1.4,    1.3,    1.3,    1.6,    2.0,    2.4,    2.5,    2.7,  999.0,    2.6,    2.0,  999.0,  999.0,  999.0,  999.0,  999.0,  999.0,    4.5,    5.5,    5.8,    5.4,  999.0,  999.0,  999.0,  999.0,  999.0,  999.0,   -0.2,   -0.5,   -0.7,   -0.9,   -1.7,   -2.4,   -3.0,   -3.3,   -3.2,  999.0,  999.0,   -0.9,  999.0,  999.0,  999.0,  999.0,  999.0,  999.0,  999.0,  999.0,  999.0,  999.0,  999.0,  999.0,  999.0,  999.0,  999.0,  999.0,  999.0
2010/10/19 07:20,   -0.1,    0.1,    1.1,    1.0,    0.7,    1.0,    1.2,    1.6,    2.0,    2.4,    2.5,    2.0,    1.8,    1.8,    2.9,    3.5,    4.0,    3.7,    3.7,    3.4,    2.9,    3.2,    3.5,    3.7,    3.2,    2.8,    1.9,    2.6,    2.2,    2.0,    2.3,    2.2,    2.7,    3.1,    2.6,    1.7,    0.9,    1.2,    1.1,   -0.1,    0.0,   -0.2,    0.7,    1.3,    1.4,    2.2,    2.3,    2.4,    2.9,    2.8,    2.9,  999.0,  999.0,    2.2,    2.1,  999.0,  999.0,  999.0,  999.0,  999.0,    5.0,  999.0,  999.0,  999.0,  999.0,  999.0,  999.0,  999.0,  999.0,   -0.2,  999.0,  999.0,   -1.7,   -2.4,   -3.1,  999.0,  999.0,  999.0,  999.0,  999.0,  999.0,  999.0,  999.0,  999.0,  999.0,  999.0,  999.0,  999.0,  999.0,  999.0,  999.0,  999.0,  999.0,  999.0,  999.0,  999.0,  999.0,  999.0
2010/10/19 07:30,   -0.2,    0.1,    0.8,    1.7,    1.2,    1.4,    1.8,    2.3,    2.3,    2.2,    2.3,    2.3,    2.1,    2.1,    2.6,    2.7,    3.2,    3.7,    3.8,    2.7,    2.8,    2.9,    3.1,    3.2,    2.9,    1.5,    1.0,    1.5,    1.7,    1.4,    1.7,    2.2,    2.6,    2.8,    2.3,    1.3,    0.8,    1.0,    0.4,   -0.4,  999.0,    0.4,  999.0,    1.1,    1.6,  999.0,    2.5,    2.7,    2.4,    2.6,  999.0,  999.0,  999.0,    1.8,  999.0,  999.0,  999.0,  999.0,    2.7,  999.0,  999.0,  999.0,  999.0,  999.0,  999.0,  999.0,  999.0,  999.0,  999.0,  999.0,  999.0,  999.0,  999.0,  999.0,  999.0,  999.0,  999.0,  999.0,  999.0,  999.0,  999.0,  999.0,  999.0,  999.0,  999.0,  999.0,  999.0,  999.0,  999.0,  999.0,  999.0,  999.0,  999.0,  999.0,  999.0,  999.0,  999.0,  999.0
2010/10/19 07:40,   -0.1,   -0.1,    0.5,    1.2,    1.1,    1.4,    1.5,    1.6,    2.3,    2.1,    1.8,    1.9,    2.0,    2.2,    2.6,    2.9,    3.6,    3.6,    3.8,    3.0,    3.1,    3.0,    3.3,    3.2,    2.8,    1.7,  999.0,    1.8,    1.4,  999.0,    2.0,    2.5,    2.9,    2.8,    2.8,    1.5,    1.2,    1.2,    0.4,   -0.0,   -0.2,    1.3,    1.0,    1.4,    1.9,    2.2,    2.0,    2.4,    2.1,  999.0,  999.0,  999.0,  999.0,  999.0,  999.0,  999.0,  999.0,  999.0,  999.0,  999.0,  999.0,  999.0,  999.0,  999.0,  999.0,  999.0,  999.0,  999.0,  999.0,  999.0,  999.0,  999.0,  999.0,  999.0,  999.0,  999.0,  999.0,  999.0,  999.0,  999.0,  999.0,  999.0,  999.0,  999.0,  999.0,  999.0,  999.0,  999.0,  999.0,  999.0,  999.0,  999.0,  999.0,  999.0,  999.0,  999.0,  999.0,  999.0
2010/10/19 07:50,   -0.5,   -0.2,    0.5,    1.1,    1.5,    1.1,    1.8,    1.3,    1.6,    1.4,    0.7,    1.0,    1.2,    1.3,    2.7,    2.8,    3.2,    3.4,    3.4,    3.4,    3.3,    2.6,    2.8,    2.5,    2.4,    1.9,    0.7,    1.3,    1.1,  999.0,    1.4,    1.9,    2.3,    2.3,    2.0,    1.2,    0.5,    1.0,    0.5,    0.1,   -0.1,    1.2,    1.1,    1.0,    1.9,    2.6,    2.6,    2.3,    2.0,  999.0,  999.0,  999.0,  999.0,  999.0,  999.0,  999.0,  999.0,  999.0,  999.0,  999.0,  999.0,  999.0,  999.0,  999.0,  999.0,  999.0,  999.0,  999.0,  999.0,  999.0,  999.0,  999.0,  999.0,  999.0,  999.0,  999.0,  999.0,  999.0,  999.0,  999.0,  999.0,  999.0,  999.0,  999.0,  999.0,  999.0,  999.0,  999.0,  999.0,  999.0,  999.0,  999.0,  999.0,  999.0,  999.0,  999.0,  999.0,  999.0
2010/10/19 08:00,   -0.7,  999.0,    0.0,    1.1,    1.8,    1.9,    2.1,    2.6,    2.2,    1.9,    0.5,    1.9,    1.2,    0.9,    2.5,  999.0,    2.9,    3.5,    3.7,    3.7,    3.6,    3.6,  999.0,    2.4,    2.3,    1.6,    1.1,    1.0,    0.9,    0.5,    1.2,    1.6,    2.3,    2.4,    1.4,   -0.2,    0.4,    0.4,  999.0,  999.0,  999.0,  999.0,    1.1,    2.1,    2.7,    2.9,    2.9,    2.8,  999.0,  999.0,  999.0,  999.0,  999.0,  999.0,  999.0,  999.0,  999.0,  999.0,  999.0,  999.0,  999.0,  999.0,  999.0,  999.0,  999.0,  999.0,  999.0,  999.0,  999.0,  999.0,  999.0,  999.0,  999.0,  999.0,  999.0,  999.0,  999.0,  999.0,  999.0,  999.0,  999.0,  999.0,  999.0,  999.0,  999.0,  999.0,  999.0,  999.0,  999.0,  999.0,  999.0,  999.0,  999.0,  999.0,  999.0,  999.0,  999.0,  999.0
2010/10/19 08:10,  999.0,  999.0,    0.8,    1.5,    2.5,    2.9,    2.9,    2.7,    2.7,    2.1,    2.9,    2.7,    2.4,    1.5,    2.2,    2.8,    3.0,    3.6,    3.6,    4.0,    3.6,    3.7,    2.5,    2.7,    2.2,    1.6,    1.2,    0.6,    0.3,  999.0,    0.7,    1.2,    2.3,    2.1,  999.0,  999.0,    1.3,  999.0,   -0.6,  999.0,  999.0,  999.0,  999.0,    1.9,    2.0,    1.6,  999.0,  999.0,    1.7,  999.0,  999.0,  999.0,   -0.9,  999.0,  999.0,  999.0,  999.0,  999.0,  999.0,  999.0,  999.0,  999.0,  999.0,  999.0,  999.0,  999.0,  999.0,  999.0,  999.0,  999.0,  999.0,  999.0,  999.0,  999.0,  999.0,  999.0,  999.0,  999.0,  999.0,  999.0,  999.0,  999.0,  999.0,  999.0,  999.0,  999.0,  999.0,  999.0,  999.0,  999.0,  999.0,  999.0,  999.0,  999.0,  999.0,  999.0,  999.0,  999.0
2010/10/19 08:20,  999.0,  999.0,   -0.2,    0.9,    2.1,    2.6,    2.5,    2.9,    3.2,    2.4,    3.3,    3.2,    2.7,    1.8,    2.7,    3.2,    3.4,    3.6,    4.0,    3.6,    3.3,    3.3,    2.8,    2.9,    2.6,    1.9,    1.2,    1.1,  999.0,  999.0,  999.0,  999.0,    1.6,    2.0,    1.4,  999.0,  999.0,    0.9,    0.5,    0.3,  999.0,    0.7,    1.1,    1.5,    1.8,  999.0,  999.0,  999.0,  999.0,  999.0,    0.2,   -0.1,    0.2,  999.0,  999.0,  999.0,  999.0,  999.0,  999.0,  999.0,  999.0,  999.0,  999.0,  999.0,  999.0,  999.0,  999.0,  999.0,  999.0,  999.0,  999.0,  999.0,  999.0,  999.0,  999.0,  999.0,  999.0,  999.0,  999.0,  999.0,  999.0,  999.0,  999.0,  999.0,  999.0,  999.0,  999.0,  999.0,  999.0,  999.0,  999.0,  999.0,  999.0,  999.0,  999.0,  999.0,  999.0,  999.0
2010/10/19 08:30,   -0.7,  999.0,  999.0,    1.4,    1.5,    1.8,    2.4,    2.3,    2.1,    2.1,    2.2,    2.8,    1.5,    1.7,    2.8,    3.6,    3.4,    3.6,    3.8,    3.7,    4.1,    3.0,    2.8,    3.0,    2.8,    2.4,    1.0,    1.0,    0.5,  999.0,    0.5,    0.6,  999.0,  999.0,    0.6,   -0.6,    0.7,    1.0,    0.6,   -0.7,   -0.5,   -0.8,    0.2,    1.5,    2.1,    2.2,  999.0,  999.0,  999.0,  999.0,    0.3,    0.2,    0.6,  999.0,  999.0,  999.0,  999.0,  999.0,  999.0,  999.0,  999.0,  999.0,  999.0,  999.0,  999.0,  999.0,  999.0,  999.0,  999.0,  999.0,  999.0,  999.0,  999.0,  999.0,  999.0,  999.0,  999.0,  999.0,  999.0,  999.0,  999.0,  999.0,  999.0,  999.0,  999.0,  999.0,  999.0,  999.0,  999.0,  999.0,  999.0,  999.0,  999.0,  999.0,  999.0,  999.0,  999.0,  999.0
2010/10/19 08:40,   -0.2,   -0.0,    1.0,    1.5,    1.7,    2.4,    2.5,    2.6,    2.6,    2.7,    2.9,    3.1,    1.5,    0.0,    2.5,    3.3,    3.5,    3.6,    4.3,    4.1,    3.8,    3.6,    3.1,    3.0,    3.0,    2.6,    0.7,    0.7,    0.0,  999.0,    0.1,    0.2,  999.0,    0.6,    0.2,   -0.8,    0.1,    0.7,    0.2,   -0.4,   -0.6,    0.1,    0.6,    1.6,  999.0,  999.0,  999.0,  999.0,  999.0,    0.9,  999.0,    0.5,  999.0,  999.0,  999.0,  999.0,  999.0,  999.0,  999.0,  999.0,  999.0,  999.0,  999.0,  999.0,  999.0,  999.0,  999.0,  999.0,  999.0,  999.0,  999.0,  999.0,  999.0,  999.0,  999.0,  999.0,  999.0,  999.0,  999.0,  999.0,  999.0,  999.0,  999.0,  999.0,  999.0,  999.0,  999.0,  999.0,  999.0,  999.0,  999.0,  999.0,  999.0,  999.0,  999.0,  999.0,  999.0,  999.0
2010/10/19 08:50,  999.0,   -0.5,  999.0,    1.6,    2.0,    2.2,    2.5,    2.6,    3.1,    2.5,    3.8,    4.2,    3.7,  999.0,    3.9,    3.7,    4.1,    4.1,    4.6,    5.1,    4.0,    3.8,    3.1,    3.2,    3.0,    3.2,    1.0,    0.7,    0.3,  999.0,    0.2,    0.7,  999.0,    0.4,    0.0,    0.1,    0.7,    0.6,    0.0,   -0.6,   -0.4,  999.0,  999.0,  999.0,  999.0,  999.0,  999.0,  999.0,  999.0,  999.0,  999.0,  999.0,  999.0,  999.0,  999.0,  999.0,  999.0,  999.0,  999.0,  999.0,  999.0,  999.0,  999.0,  999.0,  999.0,  999.0,  999.0,  999.0,  999.0,  999.0,  999.0,  999.0,  999.0,  999.0,  999.0,  999.0,  999.0,  999.0,  999.0,  999.0,  999.0,  999.0,  999.0,  999.0,  999.0,  999.0,  999.0,  999.0,  999.0,  999.0,  999.0,  999.0,  999.0,  999.0,  999.0,  999.0,  999.0,  999.0
2010/10/19 09:00,  999.0,  999.0,  999.0,    1.8,    1.9,    2.0,    2.3,    2.7,    3.0,    3.2,    3.1,    3.7,    3.5,    3.6,    3.5,    3.4,    3.8,    3.8,    4.5,    4.8,    4.3,    4.2,    3.6,    3.1,    3.4,    3.4,    3.4,    1.2,    1.3,  999.0,  999.0,    0.8,    1.2,    1.3,    0.9,  999.0,  999.0,    1.2,    0.9,    0.1,   -0.2,    0.1,  999.0,  999.0,  999.0,    1.8,  999.0,  999.0,  999.0,  999.0,  999.0,  999.0,  999.0,  999.0,  999.0,  999.0,  999.0,  999.0,  999.0,  999.0,  999.0,  999.0,  999.0,  999.0,  999.0,  999.0,  999.0,  999.0,  999.0,  999.0,  999.0,  999.0,  999.0,  999.0,  999.0,  999.0,  999.0,  999.0,  999.0,  999.0,  999.0,  999.0,  999.0,  999.0,  999.0,  999.0,  999.0,  999.0,  999.0,  999.0,  999.0,  999.0,  999.0,  999.0,  999.0,  999.0,  999.0,  999.0
2010/10/19 09:10,    0.4,    0.4,    1.8,    1.5,    1.4,    2.0,    2.6,    3.2,    3.3,    3.2,    3.5,    3.6,    3.8,    3.3,    3.2,    3.3,    3.4,    3.5,    3.8,    4.0,    4.0,    3.9,    3.5,    3.2,    3.2,    4.0,  999.0,    2.1,    1.6,    1.5,  999.0,    0.9,    1.4,    1.4,    1.0,    0.6,    0.4,    1.1,    1.1,    0.4,   -0.6,   -0.2,  999.0,  999.0,  999.0,    1.7,  999.0,  999.0,  999.0,  999.0,  999.0,  999.0,  999.0,  999.0,  999.0,  999.0,  999.0,  999.0,  999.0,  999.0,  999.0,  999.0,  999.0,  999.0,  999.0,  999.0,  999.0,  999.0,  999.0,  999.0,  999.0,  999.0,  999.0,  999.0,  999.0,  999.0,  999.0,  999.0,  999.0,  999.0,  999.0,  999.0,  999.0,  999.0,  999.0,  999.0,  999.0,  999.0,  999.0,  999.0,  999.0,  999.0,  999.0,  999.0,  999.0,  999.0,  999.0,  999.0
2010/10/19 09:20,    0.4,    0.9,    1.2,    1.9,    1.9,    2.2,    3.2,    3.5,    3.7,    3.5,    3.4,    3.4,    3.4,    2.9,    3.1,    3.6,    3.7,    3.8,    4.2,    4.5,    4.6,    5.1,    4.1,    3.5,    3.4,    3.9,    4.2,    4.3,    2.8,    2.9,    2.2,    1.7,    2.0,    2.2,    1.9,    1.6,    0.9,    0.7,    1.5,    0.9,    0.1,    0.1,  999.0,  999.0,  999.0,    1.2,    1.4,    1.4,  999.0,  999.0,  999.0,  999.0,  999.0,  999.0,  999.0,  999.0,  999.0,  999.0,  999.0,  999.0,  999.0,  999.0,  999.0,  999.0,  999.0,  999.0,  999.0,  999.0,  999.0,  999.0,  999.0,  999.0,  999.0,  999.0,  999.0,  999.0,  999.0,  999.0,  999.0,  999.0,  999.0,  999.0,  999.0,  999.0,  999.0,  999.0,  999.0,  999.0,  999.0,  999.0,  999.0,  999.0,  999.0,  999.0,  999.0,  999.0,  999.0,  999.0
2010/10/19 09:30,   -0.0,    0.4,    0.7,    0.5,    1.8,    2.4,    3.3,    3.4,    3.8,    3.8,    3.3,    3.1,    2.9,    2.1,    2.5,    3.3,    3.3,    3.7,    4.2,    4.2,    5.1,    4.9,    4.6,    4.0,    3.3,    3.6,    3.8,    4.2,    4.1,    3.1,    2.7,    2.2,    2.1,  999.0,    2.0,    1.6,    1.2,  999.0,    1.0,    0.0,   -0.4,   -0.4,  999.0,  999.0,  999.0,  999.0,  999.0,  999.0,  999.0,  999.0,  999.0,  999.0,  999.0,  999.0,  999.0,  999.0,  999.0,  999.0,  999.0,  999.0,  999.0,  999.0,  999.0,  999.0,  999.0,  999.0,  999.0,  999.0,  999.0,  999.0,  999.0,  999.0,  999.0,  999.0,  999.0,  999.0,  999.0,  999.0,  999.0,  999.0,  999.0,  999.0,  999.0,  999.0,  999.0,  999.0,  999.0,  999.0,  999.0,  999.0,  999.0,  999.0,  999.0,  999.0,  999.0,  999.0,  999.0,  999.0
2010/10/19 09:40,   -0.1,    0.7,    0.8,    1.7,    2.0,    2.8,    2.4,    3.3,    3.1,    2.5,    2.6,    2.4,    2.9,    2.0,    3.3,    3.5,    4.1,    4.7,    4.9,    4.3,    5.2,    5.2,    4.9,    4.8,    4.1,    3.6,    3.8,    4.0,    4.0,    3.0,    2.6,    2.4,    2.0,    2.2,    2.4,    2.1,    1.6,  999.0,    1.2,    1.3,  999.0,    0.4,  999.0,    1.1,  999.0,    1.6,  999.0,  999.0,  999.0,  999.0,  999.0,  999.0,  999.0,  999.0,  999.0,  999.0,  999.0,  999.0,  999.0,  999.0,  999.0,  999.0,  999.0,  999.0,  999.0,  999.0,  999.0,  999.0,  999.0,  999.0,  999.0,  999.0,  999.0,  999.0,  999.0,  999.0,  999.0,  999.0,  999.0,  999.0,  999.0,  999.0,  999.0,  999.0,  999.0,  999.0,  999.0,  999.0,  999.0,  999.0,  999.0,  999.0,  999.0,  999.0,  999.0,  999.0,  999.0,  999.0
2010/10/19 09:50,   -0.2,    0.2,    0.9,    1.3,    1.7,    2.8,    3.4,    4.0,    4.7,    3.6,    3.1,    3.2,    1.8,    2.3,    2.5,    3.1,    3.6,    4.3,    4.5,    4.6,    5.1,    5.2,    5.3,    5.0,    4.8,    3.9,    3.9,    4.3,    3.6,    3.0,    2.4,    1.8,    1.6,    2.1,    2.4,    1.9,    1.4,    0.9,    1.0,    0.9,    0.2,    0.1,  999.0,    1.0,    1.7,  999.0,  999.0,  999.0,  999.0,  999.0,  999.0,  999.0,  999.0,  999.0,  999.0,  999.0,  999.0,  999.0,  999.0,  999.0,  999.0,  999.0,  999.0,  999.0,  999.0,  999.0,  999.0,  999.0,  999.0,  999.0,  999.0,  999.0,  999.0,  999.0,  999.0,  999.0,  999.0,  999.0,  999.0,  999.0,  999.0,  999.0,  999.0,  999.0,  999.0,  999.0,  999.0,  999.0,  999.0,  999.0,  999.0,  999.0,  999.0,  999.0,  999.0,  999.0,  999.0,  999.0
2010/10/19 10:00,    0.9,    0.2,   -0.1,    0.8,    1.9,    2.2,    2.9,    3.9,    5.1,    4.3,    5.3,    5.4,    4.7,    4.1,    4.2,    4.4,    4.0,    3.9,    4.1,    4.1,    4.2,    4.1,    4.1,    4.0,    4.1,    3.6,    3.7,    4.2,    4.2,    3.0,    2.7,    2.6,    1.8,    1.8,    2.3,    1.9,    1.8,    2.3,    1.8,    1.1,    1.3,  999.0,  999.0,  999.0,    2.1,    2.1,  999.0,  999.0,  999.0,  999.0,  999.0,  999.0,  999.0,  999.0,  999.0,  999.0,  999.0,  999.0,    3.8,  999.0,  999.0,  999.0,  999.0,  999.0,  999.0,  999.0,  999.0,  999.0,  999.0,  999.0,  999.0,  999.0,  999.0,  999.0,  999.0,  999.0,  999.0,  999.0,  999.0,  999.0,  999.0,  999.0,  999.0,  999.0,  999.0,  999.0,  999.0,  999.0,  999.0,  999.0,  999.0,  999.0,  999.0,  999.0,  999.0,  999.0,  999.0,  999.0
2010/10/19 10:10,    0.0,   -1.5,  999.0,   -0.7,    0.4,    0.9,    1.5,    2.1,    2.5,    2.5,    2.6,    2.9,    3.1,    3.2,    3.3,    4.1,    3.9,    4.0,    4.0,    4.4,    3.7,    3.6,    3.1,    3.3,    3.6,    3.5,    3.5,    3.9,    4.0,    3.4,    2.6,    2.5,    2.1,    2.2,    2.6,    2.5,    1.9,    2.0,    2.4,    1.4,  999.0,  999.0,  999.0,  999.0,    1.6,  999.0,  999.0,  999.0,  999.0,  999.0,  999.0,  999.0,    2.4,    2.4,    3.1,  999.0,  999.0,  999.0,  999.0,  999.0,  999.0,  999.0,  999.0,  999.0,  999.0,  999.0,  999.0,  999.0,  999.0,  999.0,  999.0,  999.0,  999.0,  999.0,  999.0,  999.0,  999.0,  999.0,  999.0,  999.0,  999.0,  999.0,  999.0,  999.0,  999.0,  999.0,  999.0,  999.0,  999.0,  999.0,  999.0,  999.0,  999.0,  999.0,  999.0,  999.0,  999.0,  999.0
2010/10/19 10:20,   -1.3,    0.4,  999.0,  999.0,   -0.9,    0.5,    2.8,    2.2,    2.5,    2.4,    2.3,    2.4,    2.4,    2.6,    3.1,    3.3,    4.3,    4.8,    4.8,    5.2,    4.7,    4.7,    4.6,    4.4,    4.4,    4.3,    4.2,    4.4,    4.7,    3.8,    3.7,  999.0,    2.2,    2.0,    2.4,    2.1,    1.8,    2.4,    2.8,    1.8,    1.3,  999.0,  999.0,  999.0,  999.0,  999.0,  999.0,  999.0,  999.0,  999.0,  999.0,  999.0,  999.0,    3.1,  999.0,  999.0,  999.0,  999.0,  999.0,  999.0,  999.0,  999.0,  999.0,  999.0,  999.0,  999.0,  999.0,  999.0,  999.0,  999.0,  999.0,  999.0,  999.0,  999.0,  999.0,  999.0,  999.0,  999.0,  999.0,  999.0,  999.0,  999.0,  999.0,  999.0,  999.0,  999.0,  999.0,  999.0,  999.0,  999.0,  999.0,  999.0,  999.0,  999.0,  999.0,  999.0,  999.0,  999.0
2010/10/19 10:30,  999.0,  999.0,  999.0,    2.8,    3.2,    3.1,  999.0,    2.9,    2.2,    2.6,    3.1,    3.8,    4.4,    4.9,    4.5,    4.5,    4.9,    5.0,    5.0,    5.0,    4.8,    4.0,    4.1,    4.2,    4.2,    3.8,    4.2,    3.6,    4.0,    4.0,    3.8,    3.6,    3.3,    2.1,    2.3,    2.2,    1.8,    2.4,    1.8,    1.0,  999.0,  999.0,  999.0,  999.0,  999.0,  999.0,  999.0,  999.0,  999.0,  999.0,  999.0,  999.0,  999.0,  999.0,  999.0,  999.0,  999.0,  999.0,  999.0,  999.0,  999.0,  999.0,  999.0,  999.0,  999.0,  999.0,  999.0,  999.0,  999.0,  999.0,  999.0,  999.0,  999.0,  999.0,  999.0,  999.0,  999.0,  999.0,  999.0,  999.0,  999.0,  999.0,  999.0,  999.0,  999.0,  999.0,  999.0,  999.0,  999.0,  999.0,  999.0,  999.0,  999.0,  999.0,  999.0,  999.0,  999.0,  999.0
2010/10/19 10:40,  999.0,  999.0,  999.0,    1.9,    1.6,    1.6,    3.1,    3.2,    2.8,    2.7,    2.8,    2.7,    3.0,    3.1,    3.6,    4.9,    5.6,    5.5,    5.9,    5.8,    4.3,    5.2,    3.7,    3.7,    4.0,    3.6,    3.2,    3.2,    3.5,    3.2,    3.3,    3.0,    3.0,    2.2,    2.0,    1.5,    1.8,    1.9,    1.5,    1.1,    0.2,  999.0,  999.0,  999.0,  999.0,  999.0,  999.0,  999.0,  999.0,  999.0,  999.0,  999.0,    2.2,  999.0,  999.0,  999.0,    2.9,  999.0,  999.0,  999.0,  999.0,  999.0,  999.0,  999.0,  999.0,  999.0,  999.0,  999.0,  999.0,  999.0,  999.0,  999.0,  999.0,  999.0,  999.0,  999.0,  999.0,  999.0,  999.0,  999.0,  999.0,  999.0,  999.0,  999.0,  999.0,  999.0,  999.0,  999.0,  999.0,  999.0,  999.0,  999.0,  999.0,  999.0,  999.0,  999.0,  999.0,  999.0
2010/10/19 10:50,  999.0,    1.2,  999.0,    2.6,    3.2,    3.8,    4.2,    3.6,    3.7,    2.6,    2.6,    2.6,    2.6,    3.3,    3.5,    3.6,    3.9,    3.8,    3.5,    3.6,    3.6,    3.4,    3.1,    4.0,    3.2,    3.3,    3.7,    3.7,    3.3,    3.5,    3.8,    4.1,    3.6,    3.1,    2.9,    2.8,    2.4,    1.5,    1.6,    1.6,    0.6,    0.8,  999.0,  999.0,  999.0,  999.0,  999.0,  999.0,  999.0,  999.0,  999.0,  999.0,    2.3,  999.0,  999.0,  999.0,  999.0,  999.0,  999.0,  999.0,  999.0,  999.0,  999.0,  999.0,  999.0,  999.0,  999.0,  999.0,  999.0,  999.0,  999.0,  999.0,  999.0,  999.0,  999.0,  999.0,  999.0,  999.0,  999.0,  999.0,  999.0,  999.0,  999.0,  999.0,  999.0,  999.0,  999.0,  999.0,  999.0,  999.0,  999.0,  999.0,  999.0,  999.0,  999.0,  999.0,  999.0,  999.0
2010/10/19 11:00,  999.0,  999.0,  999.0,  999.0,  999.0,  999.0,    3.2,    2.1,    2.0,    2.3,    2.4,    2.1,    2.3,    3.3,    3.2,    2.4,    2.3,    1.6,    2.5,    3.2,    3.5,    3.1,    3.5,    2.4,    4.3,    3.1,    4.0,    4.1,    3.4,    3.9,    4.3,    3.5,    3.5,    3.2,    2.5,    1.2,    0.5,    1.5,    0.8,    0.5,    0.9,  999.0,  999.0,  999.0,  999.0,  999.0,  999.0,  999.0,  999.0,  999.0,  999.0,  999.0,  999.0,  999.0,  999.0,  999.0,  999.0,  999.0,  999.0,    3.4,  999.0,  999.0,  999.0,  999.0,  999.0,  999.0,  999.0,  999.0,  999.0,  999.0,  999.0,  999.0,  999.0,  999.0,  999.0,  999.0,  999.0,  999.0,  999.0,  999.0,  999.0,  999.0,  999.0,  999.0,  999.0,  999.0,  999.0,  999.0,  999.0,  999.0,  999.0,  999.0,  999.0,  999.0,  999.0,  999.0,  999.0,  999.0
2010/10/19 11:10,  999.0,  999.0,  999.0,  999.0,  999.0,  999.0,  999.0,    3.9,  999.0,  999.0,    3.3,    2.3,    3.3,    3.0,    3.9,    3.7,    4.0,    3.8,    4.5,    4.4,    4.6,    5.7,    4.2,    3.7,    3.4,    4.0,    4.1,    3.5,    2.5,    2.1,    3.3,    3.4,    3.3,    2.3,    2.9,    0.9,   -0.1,    1.7,    0.7,   -2.2,   -0.1,   -1.2,  999.0,  999.0,  999.0,  999.0,  999.0,  999.0,  999.0,  999.0,  999.0,  999.0,  999.0,  999.0,  999.0,  999.0,  999.0,  999.0,  999.0,  999.0,  999.0,  999.0,  999.0,  999.0,  999.0,  999.0,  999.0,  999.0,  999.0,  999.0,  999.0,  999.0,  999.0,  999.0,  999.0,  999.0,  999.0,  999.0,  999.0,  999.0,  999.0,  999.0,  999.0,  999.0,  999.0,  999.0,  999.0,  999.0,  999.0,  999.0,  999.0,  999.0,  999.0,  999.0,  999.0,  999.0,  999.0,  999.0
2010/10/19 11:20,    2.0,    3.4,    3.7,    4.8,  999.0,    2.9,    3.2,    1.6,    2.8,    3.4,    2.1,    2.4,    1.3,    2.7,    2.7,    3.4,    1.6,    2.3,    2.9,    3.9,    3.7,    3.5,    3.7,    4.4,    3.9,    4.3,    4.4,    4.6,    4.6,    3.7,    3.7,    4.0,    4.3,   -5.7,    5.5,   -4.2,   -4.6,   -3.7,   -6.4,   -3.5,  -12.0,    3.0,   -6.1,   -7.5,   -5.3,  999.0,  999.0,   -4.5,  999.0,   -2.5,  999.0,  999.0,  999.0,  999.0,  999.0,  999.0,  999.0,  999.0,  999.0,  999.0,  999.0,  999.0,  999.0,  999.0,  999.0,  999.0,  999.0,  999.0,  999.0,  999.0,  999.0,  999.0,  999.0,  999.0,  999.0,  999.0,  999.0,  999.0,  999.0,  999.0,  999.0,  999.0,  999.0,  999.0,  999.0,  999.0,  999.0,  999.0,  999.0,  999.0,  999.0,  999.0,  999.0,  999.0,  999.0,  999.0,  999.0,  999.0
2010/10/19 11:30,  999.0,  999.0,    6.0,    4.4,    4.8,    4.3,    3.5,    3.9,    2.9,    1.9,    2.3,    2.7,    2.6,    2.5,    2.6,    1.6,    3.2,    4.9,    4.5,    4.4,    3.6,    4.0,    5.3,    5.1,    5.8,    5.6,    4.9,    4.4,    4.1,    3.5,    3.3,    3.1,    2.7,   -1.0,   -2.9,   -4.9,   -5.6,   -2.6,   -5.4,    0.5,   -1.2,   -4.0,   -5.0,   -2.2,  999.0,   -5.9,  999.0,   -2.7,   -1.5,  999.0,  999.0,  999.0,  999.0,  999.0,  999.0,  999.0,  999.0,  999.0,  999.0,  999.0,  999.0,  999.0,  999.0,  999.0,  999.0,  999.0,  999.0,  999.0,  999.0,  999.0,  999.0,  999.0,  999.0,  999.0,  999.0,  999.0,  999.0,  999.0,  999.0,  999.0,  999.0,  999.0,  999.0,  999.0,  999.0,  999.0,  999.0,  999.0,  999.0,  999.0,  999.0,  999.0,  999.0,  999.0,  999.0,  999.0,  999.0,  999.0
2010/10/19 11:40,  999.0,  999.0,  999.0,  999.0,    2.8,    3.4,    4.9,    4.4,    3.4,    2.6,    2.6,    2.5,    2.9,    2.7,    2.8,    3.4,    3.2,    3.1,    3.1,    2.5,    3.9,    4.3,    2.2,    2.8,    3.0,    2.5,    1.9,    1.5,    1.4,   -0.2,    1.1,    1.9,    2.0,   -0.3,    2.1,   -2.4,    1.6,    1.3,    0.8,    0.5,   -1.1,   -0.9,   -0.6,   -1.5,  999.0,   -1.3,   -0.4,   -0.2,   -0.4,   -1.2,  999.0,   -0.1,  999.0,    2.3,  999.0,  999.0,  999.0,  999.0,  999.0,  999.0,  999.0,  999.0,  999.0,  999.0,  999.0,  999.0,  999.0,  999.0,  999.0,  999.0,  999.0,  999.0,  999.0,  999.0,  999.0,  999.0,  999.0,  999.0,  999.0,  999.0,  999.0,  999.0,  999.0,  999.0,  999.0,  999.0,  999.0,  999.0,  999.0,  999.0,  999.0,  999.0,  999.0,  999.0,  999.0,  999.0,  999.0,  999.0
2010/10/19 11:50,  999.0,    5.5,    6.0,    5.9,    5.4,    5.6,    5.6,    5.2,    4.1,    4.4,    4.2,    4.4,    3.5,    3.8,    3.0,    3.2,    4.0,    3.8,    3.7,    3.9,    4.0,    3.0,    3.4,    2.0,   -1.7,   -3.4,   -8.9,  999.0,   -9.3,  -11.3,  -11.0,  -12.0,  -11.6,  -11.4,  -11.9,   -9.9,   -8.4,   -7.9,   -8.2,   -7.7,   -6.9,   -8.7,   -5.2,   -4.6,   -5.9,   -5.5,   -2.4,  -10.1,   -7.8,   -2.0,   -5.6,   -3.5,  -10.1,   -4.2,  -10.6,  -11.6,   -8.2,   -8.1,   -6.0,   -8.1,   -8.9,  999.0,  999.0,  999.0,  999.0,  999.0,  999.0,  999.0,  999.0,  999.0,  999.0,  999.0,  999.0,  999.0,  999.0,  999.0,  999.0,  999.0,  999.0,  999.0,  999.0,  999.0,  999.0,  999.0,  999.0,  999.0,  999.0,  999.0,  999.0,  999.0,  999.0,  999.0,  999.0,  999.0,  999.0,  999.0,  999.0,  999.0
2010/10/19 12:00,  999.0,  999.0,    4.2,    1.4,    3.8,    4.6,    4.6,    4.1,    3.7,    3.1,    3.3,    3.2,    3.4,    3.0,    3.2,    3.3,    4.1,    4.3,    4.0,    3.9,    4.2,    1.1,    1.5,   -0.9,  999.0,  -12.0,  -12.0,  999.0,  -10.7,   -8.2,   -6.5,   -6.8,  -10.6,  999.0,  999.0,   -1.6,   -1.4,   -1.6,   -2.1,   -2.7,   -3.7,   -4.0,   -2.2,   -0.5,   -1.6,   -2.0,   -2.1,   -1.6,   -1.1,   -0.5,    2.6,    1.6,    2.3,    1.7,    1.9,    1.9,    3.2,    3.0,    2.9,    2.5,    2.6,    1.4,   -0.5,    1.5,    2.0,    1.0,   -0.3,   -1.2,   -3.2,   -3.2,   -3.5,   -1.8,   -1.4,   -3.6,   -5.7,   -6.8,   -5.5,   -7.1,   -3.3,   -6.7,  -11.8,   -7.9,  999.0,  999.0,  -11.4,   -8.8,  999.0,  999.0,  999.0,  999.0,   -6.2,  999.0,  999.0,  999.0,  999.0,  999.0,  999.0,  999.0
2010/10/19 12:10,  999.0,  999.0,    2.1,    3.2,    3.3,    4.8,    6.7,    5.9,    6.1,    6.8,    5.3,    7.3,    7.0,    6.9,    6.6,    6.4,    6.5,    6.9,  999.0,   -6.5,   -0.6,   -2.6,   -2.2,   -2.0,   -4.3,   -6.5,   -3.9,   -4.7,   -5.4,   -6.8,   -6.2,   -6.6,   -7.2,  999.0,   -5.6,   -6.1,   -7.6,   -7.1,   -8.2,   -7.3,   -5.9,   -3.2,   -4.4,   -5.4,   -6.6,   -6.7,   -9.6,  -11.7,  -10.7,   -7.7,   -0.0,    0.9,    1.0,    2.0,    2.6,    3.7,    3.3,    4.1,    3.8,   -1.2,    0.0,    2.4,    2.3,    3.8,    3.6,  999.0,    4.5,    4.9,    5.3,    4.4,    1.2,    1.5,    3.6,    2.2,   -4.1,   -1.2,   -4.1,   -7.3,   -6.9,   -5.8,   -2.2,   -0.4,   -1.6,    2.9,   -2.2,  999.0,   -2.3,    6.0,  999.0,    5.2,    7.2,  999.0,    5.4,  999.0,    6.1,  999.0,    3.4,   -2.7
2010/10/19 12:20,  999.0,  999.0,  999.0,   -0.9,   -0.0,    2.3,    6.4,    4.1,    2.8,    2.8,    2.4,    3.1,    3.2,    3.0,    3.8,    7.6,    7.3,    7.2,    7.8,    7.2,    7.0,    6.4,    6.7,    7.3,    7.1,    7.5,    7.7,    7.1,    1.6,   -0.6,   -2.6,   -5.1,   -6.7,  999.0,   -7.9,   -2.2,   -3.5,    4.6,    5.2,    3.5,    3.2,    3.3,  999.0,    7.8,    6.6,    7.0,    7.3,    7.4,    7.7,   10.3,   11.6,   11.6,   11.9,   11.8,   10.1,    9.9,    5.0,    5.5,    6.5,    2.1,    6.5,    5.6,    3.4,    4.5,    6.0,    4.8,    3.8,    3.0,    2.4,    1.9,    0.9,   -1.1,   -2.0,   -2.3,   -2.0,   -5.1,   -1.0,   -0.3,    2.5,    2.3,    2.8,    2.3,    2.2,    4.0,    5.3,    2.1,    2.6,    2.7,    7.9,    8.4,    7.3,    1.7,    4.6,   -3.8,    7.7,   19.3,   14.7,  999.0
2010/10/19 12:30,    7.3,    7.9,    7.9,   10.2,    6.8,  999.0,  999.0,    8.0,    7.6,    7.7,    3.8,   -0.1,   -6.1,   -9.2,   -7.9,   -9.9,  -14.3,  -14.7,  -20.8,  -20.8,  -23.3,    4.8,    4.2,   -4.6,    0.4,  -19.9,  -14.9,  -14.4,  -18.8,  -19.7,  -11.2,  -15.2,  -19.0,   -7.2,  -15.9,  -12.6,   -7.9,   -1.8,   -0.1,   13.9,   14.7,   14.3,   -1.9,   -1.8,   -0.6,   -2.0,    6.3,   11.1,   11.4,   11.0,   12.7,    5.0,    5.8,  999.0,    4.4,    4.5,    4.4,   -6.3,   -6.1,    0.5,   -3.3,   -1.3,    0.6,    7.5,    3.9,    2.5,    2.1,    3.1,    2.7,    1.2,    1.1,    0.7,    1.0,    1.2,    0.4,    2.8,    1.5,    1.4,    1.4,   -0.7,    1.2,   -1.2,   -0.8,   -1.4,   -2.1,   -3.1,   -3.9,   -7.5,  -10.2,   -9.6,   -9.8,  -10.9,  -11.5,  -11.6,  -10.8,  -11.7,   -6.9,   -8.0
2010/10/19 12:40,  -13.9,  999.0,  -30.8,  -24.8,  -24.2,  -25.4,  -25.2,  -25.3,  -25.9,  -26.3,  -30.7,  -30.6,  -31.2,  -30.7,  -30.8,  -24.5,  -29.9,  -23.2,  -13.6,   -7.6,  -14.1,  -29.9,  -30.8,  -30.5,  -18.8,  -17.7,  -12.4,  -29.1,   -0.0,   11.0,   -2.2,    3.5,    4.3,   -1.7,  -10.1,  999.0,    0.5,  999.0,    7.8,   -7.3,   17.9,   16.4,   15.6,   -1.4,   -1.3,   -1.0,    1.3,    3.0,    2.9,    4.3,    4.3,  999.0,  999.0,    2.1,    2.2,    2.9,    3.2,    3.3,    3.2,    2.4,  999.0,    3.7,    3.6,    2.9,    1.1,    0.1,   -0.1,   -2.5,   -3.5,   -3.3,   -4.8,   -3.2,   -2.9,   -3.8,   -2.0,   -3.1,  999.0,    1.5,   -0.5,   -4.3,   -2.1,   -6.0,   -4.8,   -5.2,   -9.4,   -6.5,   -6.1,   -7.1,   -7.0,  -10.3,  -12.1,   -2.0,   -4.5,   -6.5,   -5.8,  999.0,   -1.1,  999.0
2010/10/19 12:50,    4.6,    5.7,    5.8,    6.2,    6.2,    6.5,    5.8,    5.9,   -5.5,  -17.0,   -9.4,   -9.9,   -8.2,   -8.9,   -8.4,  -14.1,  -13.2,  999.0,  999.0,  999.0,  999.0,  999.0,  999.0,  999.0,  999.0,  999.0,    4.5,    4.4,    3.9,    3.7,    3.9,    3.7,    3.9,  999.0,    3.7,    3.7,    3.7,    2.9,    2.0,    1.0,    0.7,    0.1,   -0.5,   -0.1,    0.5,    0.4,    0.6,    1.3,    1.2,    1.2,    1.8,    2.4,    2.4,    2.4,    2.2,    2.9,    2.4,    1.5,    2.5,    2.6,  999.0,    1.9,    1.9,    2.2,    2.4,    2.7,    7.4,    7.7,    8.8,    9.5,    9.8,    9.0,    8.5,  999.0,  999.0,  999.0,  999.0,  999.0,  999.0,  999.0,    7.4,    7.4,    6.6,    6.1,    5.4,    4.6,    4.9,  999.0,    3.2,   -1.4,   -0.9,   -0.3,  999.0,  999.0,  999.0,  999.0,  999.0,  999.0
2010/10/19 13:00,    6.6,    6.6,    7.1,    6.8,    6.3,    5.9,    5.7,    5.3,    5.8,   -0.3,   -1.2,   -1.3,   -1.0,    5.8,    5.5,    6.0,    2.3,    5.9,    5.6,    5.4,    5.3,    5.3,    5.4,    5.8,    5.0,    4.6,    4.4,    4.2,    4.0,    3.4,    3.8,    3.5,    3.4,    3.5,    3.3,    2.5,    2.4,    1.9,    1.7,    1.8,    1.8,    0.9,  999.0,    0.5,    1.1,    1.3,    1.6,    1.6,    1.7,    2.1,    2.3,    2.1,    2.6,    3.0,    3.6,    4.5,    3.9,    4.3,    4.6,    5.2,    6.0,    6.5,    7.2,    6.2,    5.6,    5.1,    4.9,    4.9,    4.8,    4.8,    4.8,    5.4,    4.9,    4.1,    4.1,    3.3,    2.7,    2.3,    2.4,    2.0,    1.4,    0.8,    0.3,    0.7,   -0.0,   -0.6,   -1.4,   -2.4,   -3.3,   -3.7,   -4.0,   -4.4,   -4.7,   -4.3,   -4.2,   -5.0,   -5.2,   -4.6
2010/10/19 13:10,    6.9,    6.9,    6.8,    6.7,    6.4,    6.5,    5.7,    5.3,    5.5,    5.8,    5.9,    5.4,    5.6,    5.4,    6.0,    6.4,    6.1,    6.0,    6.0,    6.2,    5.9,    5.7,    5.0,    4.2,    4.3,    4.2,    4.0,    4.1,    3.8,    4.0,    4.1,    3.6,    2.8,    2.2,    2.2,    1.9,    1.5,    0.0,   -0.1,   -0.3,    1.2,   -0.2,    0.3,   -0.3,    0.9,    1.3,    1.5,    0.9,    2.7,    3.1,    4.5,    4.2,    4.9,    6.7,    6.2,    5.7,    4.5,    4.2,    4.1,    4.5,    4.4,    2.3,    1.5,    1.4,    1.7,    1.9,    2.2,    2.5,    2.7,    2.9,    2.4,    5.0,    3.2,    3.3,    2.8,    2.8,    2.2,    2.3,    3.6,    2.4,    0.5,    0.1,    0.8,    0.8,    0.6,    0.6,    0.4,   -0.0,   -0.7,   -1.7,   -2.1,   -2.1,   -3.1,   -0.2,   -2.2,   -3.6,   -5.8,   -5.6
2010/10/19 13:20,  999.0,    4.7,    4.0,    3.9,    4.5,    3.2,    3.6,    3.3,    2.7,    3.7,    2.9,    3.2,    3.0,    3.3,    3.3,    4.1,    4.4,    2.8,    4.3,  999.0,    3.5,    3.0,    3.2,    3.5,    3.8,    3.2,    0.5,   -0.4,   -3.2,   -2.7,   -3.3,   -3.9,   -6.3,   -8.0,   -7.6,   -6.9,   -6.1,   -7.3,   -7.2,  999.0,  999.0,  999.0,  999.0,  999.0,    1.5,    1.6,    2.0,    2.4,    2.5,    2.9,    3.4,    4.1,    4.5,    4.9,    4.7,    4.7,    4.6,    4.6,    3.7,    4.3,  999.0,    2.1,  999.0,   -1.6,   -2.1,   -2.1,   -1.6,   -1.3,   -3.4,   -4.0,   -0.4,    0.4,    0.8,    0.8,    1.6,    2.4,    2.5,    2.6,    2.2,    1.9,    2.0,    1.3,    0.9,   -1.6,   -1.0,   -0.4,   -0.7,   -1.8,    0.1,    1.2,    0.6,   -0.0,   -0.5,   -0.9,   -1.5,   -2.8,   -3.1,   -2.9
2010/10/19 13:30,  999.0,    5.3,    5.9,    6.2,    6.4,    6.2,    5.7,    5.5,    4.9,    5.1,    4.9,    4.7,    4.8,    4.4,    4.5,    4.6,    4.8,  999.0,  999.0,   -0.2,    1.5,   -0.5,   -2.4,   -4.6,   -4.7,  999.0,   -4.0,   -4.6,   -4.8,   -5.3,  999.0,  999.0,  999.0,   -2.9,  999.0,    0.9,    1.1,  999.0,  999.0,  999.0,  999.0,  999.0,  999.0,  999.0,  999.0,  999.0,   -3.2,   -3.2,   -2.7,   -1.5,  999.0,    2.4,    5.7,    5.9,    6.3,    6.3,    6.0,    5.3,    5.6,    5.2,    5.4,    4.8,    4.0,    3.7,    1.7,  999.0,  999.0,   -1.3,   -1.6,   -2.1,   -1.9,   -1.1,   -1.2,   -1.3,   -1.3,   -0.7,   -0.4,   -0.6,   -0.0,    0.5,    1.1,    1.2,    1.1,    1.6,    0.8,   -0.2,   -0.8,   -1.1,   -2.2,   -3.2,   -3.5,   -3.6,   -4.0,   -5.0,   -6.2,   -6.7,   -7.0,   -7.1
2010/10/19 13:40,  999.0,    4.4,    5.1,    5.9,    5.7,    5.7,    5.0,    4.8,    4.1,    4.0,    3.9,    3.9,    3.9,    3.6,    4.4,    4.1,    4.4,    4.8,    4.6,    0.1,    1.8,    2.4,    2.9,    2.9,    1.7,    1.6,    3.4,  999.0,  999.0,    3.8,    1.2,    3.9,  999.0,  999.0,   -3.3,  999.0,  999.0,   -2.9,  999.0,  999.0,  999.0,    0.6,   -1.1,   -1.7,   -0.7,   -1.2,   -0.8,   -1.4,   -3.3,   -2.5,   -2.5,   -1.4,   -0.0,    1.6,    2.3,   -0.0,  999.0,    4.1,    4.4,    2.3,    2.9,    2.4,    2.1,    1.4,    0.3,   -0.4,   -1.9,   -2.9,   -2.9,   -3.6,   -3.0,   -1.5,   -1.6,   -2.7,   -2.3,   -1.8,   -2.1,   -2.2,   -2.5,   -2.7,   -2.7,   -2.6,   -2.1,   -2.1,   -1.9,   -1.7,   -2.2,   -3.1,   -4.5,   -5.9,   -6.1,   -6.6,   -7.2,   -7.6,   -7.8,   -7.6,   -6.6,  999.0
2010/10/19 13:50,  999.0,    4.7,    5.3,    5.1,    4.9,    4.9,    4.6,    4.5,    4.1,    3.7,    3.4,    3.2,    3.2,    3.5,    4.5,    4.5,    4.2,    4.0,    4.0,    4.3,    4.3,    4.5,    4.7,    4.8,    4.5,    4.4,    4.8,    4.3,    4.4,  999.0,  999.0,  999.0,    0.6,   -0.7,  999.0,  999.0,   -0.2,    1.0,    0.7,    0.3,   -0.6,    0.2,    0.1,   -1.0,   -0.4,  999.0,  999.0,  999.0,  999.0,  999.0,  999.0,  999.0,    5.0,    5.8,    5.8,    5.8,    4.7,    4.0,    3.8,    3.6,    3.2,    3.2,    2.9,    2.4,    2.1,    1.9,    0.6,   -0.4,   -1.3,   -2.2,   -2.0,   -1.5,   -1.4,   -1.3,   -2.0,   -2.0,   -2.4,   -3.2,   -3.8,   -4.4,   -5.0,   -4.5,   -4.4,   -4.5,   -4.3,   -4.6,  999.0,  999.0,  999.0,   -8.7,   -8.8,   -8.3,  -10.1,   -8.4,   -9.2,   -9.3,   -9.0,   -8.8
2010/10/19 14:00,  999.0,  999.0,  999.0,    5.4,  999.0,  999.0,    5.1,    5.0,    4.6,    4.2,    3.9,    3.5,    3.3,    3.1,    3.7,    4.1,    4.4,    4.1,    4.0,    4.1,    4.2,    4.4,    4.8,    4.9,    5.2,    5.2,    4.9,    4.9,  999.0,    5.0,  999.0,  999.0,  999.0,  999.0,    2.6,    2.5,  999.0,  999.0,  999.0,  999.0,  999.0,  999.0,    2.0,    2.0,    2.4,    1.7,    2.3,  999.0,  999.0,  999.0,    3.6,    3.4,    3.6,    4.3,    4.5,    4.4,    3.1,    3.4,    4.1,    3.9,    3.8,    3.4,    3.3,    3.3,    3.2,    1.5,    0.6,   -0.2,   -0.7,   -1.7,   -1.3,   -0.0,    0.0,   -0.4,  999.0,  999.0,   -0.6,   -0.7,   -2.1,   -2.5,   -3.4,  999.0,   -4.3,   -2.3,   -4.8,  999.0,   -2.2,   -2.9,   -3.4,   -5.0,   -5.4,   -5.2,   -7.7,   -8.6,  999.0,  -11.1,  -13.3,  999.0
2010/10/19 14:10,    1.7,  999.0,  999.0,    3.6,    3.6,    3.9,    4.2,    4.3,    3.8,    4.3,    3.5,    2.9,    3.3,    3.5,    3.8,    4.2,    4.3,    4.1,    3.8,    4.0,    4.4,    4.3,    4.3,    4.6,  999.0,    4.7,  999.0,    5.1,    5.0,    5.1,    5.9,    4.8,    4.9,    4.7,    4.7,    3.9,    3.5,    3.3,    2.6,    2.5,    2.2,    1.9,    2.0,    1.8,    2.8,    2.7,    2.1,    2.4,    3.2,  999.0,    5.3,    5.7,  999.0,  999.0,  999.0,  999.0,  999.0,  999.0,    4.3,  999.0,  999.0,  999.0,  999.0,  999.0,  999.0,  999.0,  999.0,  999.0,  999.0,  999.0,  999.0,  999.0,  999.0,    0.1,  999.0,    0.5,    0.3,    1.0,    0.9,    0.1,    0.4,   -0.2,   -1.1,   -1.5,   -1.7,   -1.9,   -2.6,   -2.8,   -3.2,  999.0,   -5.0,   -6.6,   -8.1,  999.0,  999.0,  999.0,  999.0,  999.0
2010/10/19 14:20,    1.3,    2.2,    2.7,    3.3,    3.0,    2.1,    2.3,    2.9,    3.1,    3.0,    3.1,    3.4,    3.9,    3.5,    3.3,    3.5,    3.8,    4.0,    3.8,    3.6,    3.7,    3.6,    3.6,    3.8,    4.3,    4.2,  999.0,    4.3,    4.6,    5.2,    4.9,    4.8,    4.3,    3.3,    3.2,    2.9,    2.8,    2.4,    2.4,    2.2,    2.2,    2.2,    2.0,    1.9,    2.6,    2.6,    2.0,    2.0,    2.6,  999.0,    2.8,    4.0,  999.0,  999.0,  999.0,  999.0,  999.0,  999.0,  999.0,  999.0,  999.0,  999.0,  999.0,  999.0,    3.1,  999.0,  999.0,    1.3,    0.8,    0.5,    0.1,    0.1,    0.5,  999.0,  999.0,  999.0,  999.0,  999.0,  999.0,  999.0,  999.0,  999.0,  999.0,  999.0,  999.0,  999.0,  999.0,  999.0,  999.0,  999.0,  999.0,  999.0,  999.0,  999.0,  999.0,   -9.6,  -10.5,  -11.1
2010/10/19 14:30,  999.0,    3.1,    4.0,    3.6,    3.5,    2.6,    1.7,    2.3,    2.9,    2.5,    2.8,    3.9,    4.4,    4.5,    4.4,    4.4,    4.7,    4.8,    4.6,    4.4,    4.2,    4.6,  999.0,    6.4,    5.9,    5.6,    5.6,    5.2,    5.3,    5.1,    5.1,    4.5,    3.5,    2.9,    3.0,    2.7,    2.4,    2.0,    1.8,    1.6,    0.9,    0.6,   -0.3,   -0.2,    0.4,    0.8,    0.9,    1.1,  999.0,  999.0,  999.0,    2.5,    3.2,    4.0,    4.1,    4.5,    5.4,  999.0,    4.8,  999.0,  999.0,  999.0,  999.0,  999.0,  999.0,  999.0,  999.0,  999.0,  999.0,  999.0,  999.0,  999.0,  999.0,  999.0,  999.0,  999.0,  999.0,  999.0,  999.0,  999.0,  999.0,  999.0,  999.0,  999.0,  999.0,  999.0,  999.0,  999.0,  999.0,  999.0,  999.0,  999.0,  999.0,  999.0,  999.0,  999.0,  999.0,  999.0
2010/10/19 14:40,  999.0,  999.0,  999.0,  999.0,    3.5,  999.0,    4.3,    4.3,    4.3,    4.2,    4.1,  999.0,    3.1,    3.7,    4.4,    4.4,    4.2,    4.5,    4.3,    3.9,    3.8,    4.2,    4.6,    5.3,    5.2,    5.1,    4.9,    4.8,    4.3,    4.2,  999.0,  999.0,    2.5,    2.2,    1.9,    1.9,    1.9,    2.0,    1.9,    1.9,    1.6,    1.6,    1.2,    0.9,    0.7,    1.5,    2.3,    2.7,    2.6,    2.9,    3.2,    4.1,    4.9,    5.3,    5.1,    5.9,    6.5,    5.7,  999.0,  999.0,  999.0,  999.0,  999.0,  999.0,  999.0,  999.0,  999.0,  999.0,  999.0,  999.0,  999.0,  999.0,  999.0,  999.0,  999.0,  999.0,  999.0,  999.0,  999.0,  999.0,  999.0,  999.0,  999.0,  999.0,  999.0,  999.0,  999.0,  999.0,  999.0,  999.0,  999.0,  999.0,  999.0,  999.0,  999.0,  999.0,  999.0,  999.0
2010/10/19 14:50,  999.0,  999.0,  999.0,  999.0,    3.8,    4.2,    3.9,    3.5,    3.6,  999.0,    3.2,  999.0,    3.1,  999.0,    4.0,    4.4,    4.5,    4.5,    4.1,    3.8,    3.8,    4.0,    4.2,    4.6,    4.7,    4.6,    4.3,    4.1,    3.9,    3.9,    3.5,    1.7,    1.3,    1.0,    0.5,    0.0,    0.2,    0.6,    0.9,    1.4,    1.4,    1.2,    1.4,    1.1,    1.1,    1.2,    1.6,    1.9,    1.6,    2.5,    3.2,    3.8,    4.7,    5.0,    4.9,    5.8,    6.4,    6.2,  999.0,    4.9,  999.0,  999.0,  999.0,  999.0,  999.0,  999.0,  999.0,  999.0,  999.0,  999.0,  999.0,  999.0,  999.0,  999.0,  999.0,  999.0,  999.0,  999.0,  999.0,  999.0,  999.0,  999.0,  999.0,  999.0,  999.0,  999.0,  999.0,  999.0,  999.0,  999.0,  999.0,  999.0,  999.0,  999.0,  999.0,  999.0,  999.0,  999.0
2010/10/19 15:00,  999.0,  999.0,  999.0,  999.0,    3.6,    3.9,    4.3,    4.0,    3.3,    4.0,    4.2,    3.8,    3.3,    3.9,    4.1,    4.3,    4.6,    4.5,    4.3,    3.8,    4.6,    4.9,    5.1,    5.4,    5.7,    6.0,    5.6,    5.0,    4.5,    4.3,    4.2,    3.2,    1.5,    1.4,    0.8,    0.2,    0.6,    1.2,    1.3,    1.0,    0.7,    0.5,    0.9,    0.8,    1.1,    1.5,    1.7,    2.3,    2.8,    3.1,    3.6,    4.8,    5.5,  999.0,    5.9,    6.2,    6.4,    6.6,    6.4,  999.0,    5.6,  999.0,  999.0,  999.0,  999.0,  999.0,  999.0,  999.0,  999.0,  999.0,  999.0,  999.0,  999.0,  999.0,  999.0,  999.0,  999.0,  999.0,  999.0,  999.0,  999.0,  999.0,  999.0,  999.0,  999.0,  999.0,  999.0,  999.0,  999.0,  999.0,  999.0,  999.0,  999.0,  999.0,  999.0,  999.0,  999.0,  999.0
2010/10/19 15:10,  999.0,    5.1,  999.0,    3.9,    4.5,    4.9,    4.0,    2.9,    3.6,    4.0,    4.4,    4.3,    4.0,    4.5,    4.5,    5.0,    5.2,  999.0,    4.2,    4.1,    4.4,    4.6,    4.8,    4.8,    5.0,    5.2,    4.5,    4.6,    4.0,    3.7,    3.3,    3.2,  999.0,    1.6,    1.2,    1.0,    1.3,    2.2,    1.3,    0.7,    0.4,    0.1,   -0.0,    0.2,    0.6,    1.3,    1.4,    2.2,    2.6,    3.3,  999.0,  999.0,  999.0,    5.2,    6.0,    6.3,    5.5,    5.5,    6.9,  999.0,  999.0,  999.0,  999.0,  999.0,  999.0,  999.0,  999.0,  999.0,  999.0,  999.0,  999.0,  999.0,    3.2,    3.4,    2.9,    3.0,    3.1,    2.8,    1.8,    0.8,  999.0,  999.0,  999.0,  999.0,  999.0,  999.0,  999.0,  999.0,  999.0,  999.0,  999.0,  999.0,  999.0,  999.0,  999.0,  999.0,  999.0,  999.0
2010/10/19 15:20,  999.0,    2.2,  999.0,  999.0,  999.0,    4.5,    4.4,    4.3,    4.2,    3.8,    4.3,    4.1,    3.9,    3.7,    4.0,    4.3,    4.9,    4.5,    4.3,    3.8,    4.1,    4.7,    4.5,    5.0,    5.0,    5.8,    5.2,    4.4,    4.1,    3.7,    2.8,    2.3,    2.2,    2.0,    1.5,    2.0,    2.3,    2.3,    2.6,    1.7,    0.6,   -0.3,   -0.5,   -0.1,   -0.0,    0.4,    1.3,    1.5,    2.4,    2.2,    2.4,    3.5,    4.0,    4.7,    5.2,  999.0,  999.0,  999.0,  999.0,  999.0,  999.0,  999.0,    4.8,    5.3,    5.6,    5.4,    4.9,    3.5,    1.8,    1.6,    1.7,    2.1,    2.3,    2.4,    2.1,    2.2,    2.0,    1.2,    0.5,   -1.0,   -2.3,   -2.9,   -3.0,   -3.2,   -3.6,   -4.0,   -4.3,   -4.9,   -5.8,   -7.0,   -7.5,   -8.3,   -8.5,   -9.3,   -9.5,  -10.4,  999.0,  999.0
2010/10/19 15:30,  999.0,  999.0,    2.5,  999.0,    4.0,    4.0,    4.7,    4.3,    4.1,    3.8,    4.0,    3.7,    3.3,    3.6,    3.9,    4.3,    4.9,    4.8,    4.6,    4.4,    3.6,    4.0,    4.0,    4.3,  999.0,    4.4,  999.0,    4.5,    4.1,    4.0,    2.6,    1.9,    1.8,    1.0,    1.0,    1.6,    2.8,    3.5,    3.1,    2.0,    0.7,    0.6,    0.9,    0.9,    1.4,    1.7,    2.0,    2.3,  999.0,    3.3,    3.9,    4.4,    4.9,    5.2,  999.0,  999.0,  999.0,  999.0,    4.2,    4.4,    3.6,    3.2,    3.4,    3.9,    4.5,    4.6,    4.0,    2.7,    1.6,    1.6,    2.1,    2.7,    2.8,    2.6,    2.2,    2.0,    1.4,    0.5,   -0.6,   -1.8,   -2.4,   -2.9,   -3.2,   -3.7,   -3.7,   -3.9,   -3.6,   -3.5,   -3.5,   -4.4,   -5.2,   -6.4,   -7.5,   -8.9,   -9.6,  -10.6,  -11.1,  -10.2
2010/10/19 15:40,  999.0,    2.0,    3.1,    3.4,    3.2,    3.0,    3.6,    3.5,    3.1,    3.3,    3.0,    2.8,    2.9,    3.2,    3.7,    4.2,    4.3,    4.4,    4.1,    4.0,    4.0,    4.1,    4.3,    4.5,  999.0,  999.0,  999.0,    4.3,    4.3,    3.7,    3.3,    2.3,    1.9,    2.0,    2.2,    1.9,    2.3,    3.1,    3.6,    3.8,    3.3,    2.4,    1.8,    2.5,    2.9,    3.3,    1.1,    1.5,    1.8,  999.0,    1.9,    2.4,    2.3,    1.2,  999.0,    3.4,    2.9,    4.0,    2.7,    2.8,    2.9,    2.9,    3.1,    3.0,    3.3,    3.8,    3.9,    3.6,    2.5,    2.4,    2.7,    2.5,    1.8,    1.6,    1.5,    0.9,    0.1,   -1.1,   -2.2,   -2.6,   -2.6,   -2.8,   -3.1,   -3.4,   -4.1,   -4.7,   -4.6,   -4.2,   -4.2,   -4.9,   -5.7,   -6.4,   -7.7,   -8.9,   -9.6,  -10.4,  -10.6,  -10.8
2010/10/19 15:50,  999.0,    3.8,    4.4,    4.1,    3.3,    3.3,    3.3,    3.1,    3.4,    2.3,    2.8,    2.9,    3.4,    3.4,    3.9,    4.0,    3.9,    4.0,    3.8,    3.4,    3.8,    3.9,    3.6,    3.5,  999.0,  999.0,  999.0,  999.0,    4.7,    3.4,    3.1,    2.6,    1.5,    0.9,    0.6,    0.7,    1.0,    1.3,    1.7,    1.9,    2.0,    1.3,    0.7,    1.8,    2.2,    2.1,    1.7,    2.2,    2.3,    2.6,    2.9,    3.1,    3.2,  999.0,    3.2,    3.3,    4.1,    4.5,    4.8,    5.0,    5.1,    5.3,    5.8,    6.1,    6.3,    6.2,    5.0,    4.4,    4.0,    3.7,    2.6,    1.7,    1.3,    0.9,    0.1,   -0.6,   -1.1,   -1.1,   -1.1,   -1.7,   -2.2,   -2.9,   -3.9,   -4.4,   -4.4,   -4.5,   -5.1,   -4.9,   -5.5,   -6.9,   -8.1,   -9.6,  -10.9,  -11.9,  -12.5,  -12.7,  -12.8,  -12.9
2010/10/19 16:00,  999.0,  999.0,    4.4,    4.3,    3.8,    3.4,    3.4,    3.4,    3.6,    3.3,    3.3,    3.4,    3.2,    3.9,    4.0,    4.5,    4.5,    4.5,    4.2,    3.8,    3.5,    3.7,    3.6,  999.0,    4.2,    3.8,    3.9,  999.0,  999.0,    4.0,    3.3,    2.7,    1.6,  999.0,  999.0,    0.8,  999.0,    1.8,    1.3,    1.6,    1.9,    1.5,    1.1,    1.7,    2.0,    1.4,    1.6,  999.0,  999.0,  999.0,  999.0,  999.0,  999.0,    3.1,    3.1,    3.4,    4.0,    4.6,    5.1,    5.5,    5.8,    6.1,    6.1,    6.0,    5.7,    4.9,    4.8,    4.4,    4.4,    4.0,    3.0,    1.7,    0.8,    0.2,    1.2,   -1.7,   -2.8,   -2.9,   -3.4,   -3.7,   -2.9,   -3.2,   -4.6,   -5.9,   -6.5,   -7.9,   -8.5,  -10.2,  -11.7,  -13.3,  -13.8,  -14.9,  -15.8,  -16.8,  -18.2,  -18.4,  -18.4,  -17.6
2010/10/19 16:10,  999.0,  999.0,  999.0,    4.2,    3.8,    3.1,    2.3,    2.2,    2.3,    2.4,    2.6,    2.8,    2.5,    2.5,    3.2,    3.7,    4.0,  999.0,    3.7,    3.8,    3.4,    3.5,    3.9,    4.5,    4.7,    4.5,    4.1,    4.1,    4.7,  999.0,    4.5,    3.2,    3.0,    1.7,    1.1,    1.5,  999.0,    1.1,    1.8,    2.3,    1.9,    1.6,    1.8,    2.0,    2.2,    1.9,    1.6,  999.0,  999.0,  999.0,  999.0,  999.0,    3.2,    3.9,    4.7,    5.4,    6.0,    6.4,    6.9,    7.6,    8.0,    7.8,    7.4,    6.7,    6.0,    5.9,    6.0,    5.7,    5.3,    4.9,    4.2,    3.5,    2.8,    1.9,    1.1,   -0.0,   -1.2,   -2.6,   -4.1,   -4.7,   -4.7,   -4.3,   -4.3,   -4.8,   -5.8,   -7.2,   -8.3,   -9.7,  -10.9,  -12.4,  -13.9,  -15.1,  -16.4,  -17.9,  -19.7,  -21.2,  -21.6,  -21.3
2010/10/19 16:20,  999.0,  999.0,    3.4,    4.1,    4.2,    3.9,    3.6,    3.4,    3.1,    3.3,    3.3,    3.3,    3.0,    3.2,    3.6,    3.9,    4.1,    4.4,    4.2,    4.2,    3.3,    3.6,    4.4,    4.4,    4.9,    4.4,    4.3,    4.6,    4.8,    4.9,    5.1,    4.5,    3.7,    2.6,    2.0,    2.2,    2.2,    1.7,    1.8,    2.2,    2.3,    1.8,    1.8,    1.8,    2.0,    1.5,    1.0,  999.0,  999.0,    2.3,    3.8,  999.0,    3.7,    4.2,    4.8,    5.9,    6.6,    7.3,    7.8,    8.2,    7.9,    7.0,    5.8,    5.5,    5.8,    5.6,    4.9,    4.2,    3.7,    3.3,    3.0,    2.8,    2.7,    2.2,    1.1,    0.4,    0.1,   -0.9,   -2.2,   -3.6,   -4.4,   -5.3,   -5.5,   -5.1,   -4.8,   -4.8,   -5.7,   -7.1,   -8.6,  -10.2,  -11.6,  -13.7,  -15.5,  -17.0,  -18.4,  -19.6,  -20.1,  -21.6
2010/10/19 16:30,  999.0,    2.9,  999.0,    3.9,    4.2,    4.2,    4.0,    4.1,    3.9,    3.2,    3.3,    3.5,    3.3,    3.2,    3.6,    3.6,    3.8,    3.9,    4.0,    3.9,    3.2,    3.1,    3.4,  999.0,  999.0,    3.6,    4.1,    4.6,    5.0,    4.7,    4.9,    4.6,    4.4,    3.8,    3.1,    2.3,    2.5,    2.1,    1.9,    2.2,    2.2,    1.9,    1.8,    1.6,    1.8,    1.6,    1.1,  999.0,  999.0,    2.0,    2.6,  999.0,    3.1,    3.6,    4.6,    6.1,    6.4,    8.3,    8.4,    7.7,    6.0,    4.9,    4.7,    5.4,    5.3,    4.6,    4.3,    4.0,    3.0,    2.8,    2.0,    1.5,    1.3,    1.0,    0.8,    0.5,    0.2,   -0.3,   -1.1,   -2.4,   -3.4,   -4.4,   -5.0,   -5.4,   -5.6,   -5.1,   -4.9,   -5.5,   -6.7,   -8.0,   -9.5,  -11.0,  -12.5,  -14.1,  -15.6,  -16.8,  -17.7,  -19.5
2010/10/19 16:40,    1.8,    2.9,    3.8,    3.6,    3.6,    4.1,    4.2,    4.2,    4.1,    3.6,    3.7,    3.8,    3.7,    3.7,    3.8,    3.3,    3.1,    3.0,    3.1,    2.8,    2.5,  999.0,  999.0,  999.0,    3.8,    3.9,    4.3,    4.7,    5.0,    4.6,    4.8,    4.7,    4.5,    4.4,    4.1,    2.7,    2.7,    2.6,  999.0,    1.9,    1.9,    1.3,    0.8,    0.9,    1.0,    1.1,    0.7,  999.0,  999.0,    1.9,    2.2,    2.3,  999.0,  999.0,  999.0,  999.0,  999.0,    7.4,  999.0,    6.6,    4.9,    3.7,    3.7,    4.4,    4.5,    4.4,    4.4,    4.1,    3.3,    2.6,    2.3,    1.9,    1.4,    1.1,    0.8,    0.9,    1.0,    0.8,    0.2,   -0.8,   -1.8,   -2.9,   -3.7,   -5.0,   -5.7,   -6.4,   -6.1,   -5.5,   -5.1,   -5.4,   -6.2,   -7.4,   -8.8,  -10.3,  -12.1,  -13.8,  -15.6,  999.0
2010/10/19 16:50,    1.8,    3.6,    3.8,    3.6,    3.8,    4.2,    3.9,    3.8,    3.2,    2.7,    2.8,    2.7,    2.7,    2.7,    2.5,    2.3,    2.1,    2.0,    2.3,    2.0,    1.7,    1.9,  999.0,    3.3,    3.2,    3.4,    3.4,    4.3,    4.6,    4.4,    3.7,    4.1,    4.6,    4.1,    4.2,    3.7,    3.5,    3.3,    3.1,    2.2,    2.0,    1.7,    1.3,  999.0,    2.0,    1.1,    0.8,    1.1,    1.3,    1.6,  999.0,  999.0,  999.0,  999.0,    3.7,    4.7,    5.4,    6.2,    6.9,    6.7,    4.8,    3.8,    3.9,    4.3,    4.6,    4.5,    4.3,    3.8,    3.5,    3.1,    2.8,    2.4,    2.0,    1.6,    1.2,    1.2,    1.0,    0.6,    0.1,   -0.4,   -0.9,   -1.9,   -3.3,   -5.0,   -6.4,   -7.2,   -7.4,   -6.7,   -5.8,   -5.4,   -5.8,   -6.7,   -7.7,   -9.0,  -10.3,  -12.1,  -13.7,  999.0
2010/10/19 17:00,  999.0,  999.0,  999.0,    3.4,    3.5,    3.7,    3.2,    3.1,    2.7,    2.5,    2.6,    2.7,    2.7,    2.7,  999.0,    2.4,    2.2,    2.2,    2.3,    2.0,    1.9,    1.9,    2.2,    2.9,    3.1,    3.3,    3.8,    4.4,    4.7,    5.0,    4.6,    4.2,    4.9,    4.1,    4.4,    4.4,    3.9,    3.6,    2.4,    2.1,    2.1,    1.2,  999.0,    2.8,    2.4,    1.5,    1.0,  999.0,    2.1,    2.4,  999.0,  999.0,  999.0,    3.5,    3.7,    6.2,    6.7,    7.1,    7.7,    6.3,    4.7,    3.8,    4.1,    4.7,    5.1,    4.7,    4.3,    3.9,    3.4,    2.9,    2.3,    2.0,    1.9,    1.5,    0.7,    0.4,    0.1,   -0.2,   -0.6,   -1.1,   -1.9,   -3.0,   -4.3,   -5.4,   -6.3,   -6.8,   -6.5,   -5.9,   -6.0,   -6.1,   -6.6,   -7.3,   -8.3,   -9.6,  -11.4,  -12.4,  -13.5,  999.0
2010/10/19 17:10,  999.0,  999.0,  999.0,    3.4,    3.6,  999.0,  999.0,    3.2,    2.9,    2.8,    2.8,    3.1,    3.2,    3.0,    2.9,    2.6,    2.1,    1.9,    1.8,    1.6,    1.2,    1.4,    1.4,    1.9,    2.1,    2.3,    2.5,    3.3,    3.7,    4.2,    4.8,    3.9,    4.2,    4.0,    4.0,    4.2,    4.5,    3.5,    2.6,    1.9,  999.0,    2.2,  999.0,    3.4,    3.4,    2.5,    1.4,    1.4,  999.0,    2.0,    2.5,  999.0,    1.6,    2.6,  999.0,  999.0,  999.0,    6.6,    7.6,    6.2,    4.9,    4.2,    4.4,    4.7,    4.4,    4.5,    4.3,    4.1,    3.5,    3.1,    3.0,    2.7,    1.8,    1.3,    0.6,    0.1,   -0.2,   -0.3,   -0.5,   -0.8,   -1.5,   -2.4,   -3.2,   -3.6,   -4.0,   -4.2,   -4.4,   -4.7,   -5.4,   -6.3,   -7.2,   -8.4,   -9.6,  -11.0,  -12.2,  -13.7,  999.0,  999.0
2010/10/19 17:20,  999.0,  999.0,  999.0,  999.0,  999.0,  999.0,  999.0,  999.0,  999.0,  999.0,  999.0,  999.0,    2.9,  999.0,    2.5,    2.6,    2.2,    2.1,    1.6,    1.5,    1.7,    1.7,    2.3,    1.6,    2.5,    2.5,    3.4,    3.7,    3.7,    4.0,    3.8,    3.7,    4.2,  999.0,  999.0,    4.0,    4.4,    3.2,    2.3,  999.0,    2.2,  999.0,    3.0,  999.0,    2.6,    1.9,    1.1,    1.4,  999.0,    1.7,    1.5,  999.0,  999.0,    1.0,  999.0,    3.4,    4.2,    5.7,    6.7,    5.1,    4.2,    3.5,    3.6,    4.0,    3.8,    3.8,    3.8,    3.8,    4.0,    3.8,    3.5,    2.9,    2.0,    1.5,    1.1,    0.8,    0.7,    0.7,    0.7,    1.0,    0.9,    0.6,    0.1,   -0.9,   -1.7,   -2.4,   -3.0,   -3.5,   -4.0,   -5.3,   -6.7,   -8.4,   -9.7,  999.0,  999.0,  999.0,  999.0,  999.0
2010/10/19 17:30,  999.0,  999.0,  999.0,  999.0,    4.1,  999.0,  999.0,    3.1,    2.7,    2.5,    2.4,    2.4,    3.0,    2.4,    2.2,    2.4,    2.2,    2.1,    2.1,    1.7,    1.8,    1.6,    1.7,    1.8,    2.0,    2.1,    3.1,    3.3,    3.6,    3.6,  999.0,    3.8,    4.0,    4.6,  999.0,    3.3,    3.2,    2.7,    1.9,    1.6,    1.3,    2.6,  999.0,  999.0,    1.7,    1.0,    0.4,    0.6,  999.0,    1.4,    1.5,  999.0,    0.9,    0.2,  999.0,  999.0,    3.8,    4.6,    5.7,    5.2,    3.9,    3.2,    3.4,    3.7,    3.8,    3.8,    3.6,    3.5,    4.3,    4.3,    3.4,    2.6,    1.7,    1.6,    1.2,    0.4,   -0.5,   -1.3,   -1.7,   -1.8,   -1.6,   -1.3,   -0.9,   -0.8,   -1.2,   -1.7,   -2.6,   -3.8,   -4.9,   -5.9,  999.0,  999.0,  999.0,  999.0,  999.0,  999.0,  999.0,  999.0
2010/10/19 17:40,  999.0,  999.0,    2.7,    3.4,  999.0,  999.0,    2.6,    2.8,    2.2,    2.2,    2.3,    2.8,    2.6,    2.5,    2.5,    2.7,    2.4,    2.4,    1.9,    1.9,    1.7,    1.5,    1.5,    1.5,    1.7,    2.2,    2.6,    2.9,    3.4,    3.3,    3.5,    3.7,    4.0,    4.4,    4.3,    3.5,    2.7,    2.5,    2.2,    1.9,  999.0,    2.3,  999.0,  999.0,    1.7,    1.2,    0.8,  999.0,  999.0,    2.1,    2.4,    1.2,  999.0,   -0.2,  999.0,    4.1,    4.7,    5.6,    6.4,    5.9,    4.6,    4.1,    4.4,    4.3,    4.4,    4.2,    4.0,    4.5,    4.9,    4.3,    2.9,    1.9,    1.5,    1.2,    0.7,   -0.5,   -1.7,   -1.9,   -1.7,   -1.8,   -1.8,   -2.3,   -2.5,   -2.2,   -1.3,   -0.9,   -2.3,   -3.2,  999.0,  999.0,  999.0,  999.0,  999.0,  999.0,  999.0,  999.0,  999.0,  999.0
2010/10/19 17:50,  999.0,  999.0,    2.9,    3.2,    3.5,  999.0,    3.1,    2.7,    2.5,    2.6,    2.7,    3.1,    2.6,    2.8,    2.7,    2.9,    2.6,    2.3,    1.9,    1.7,    2.0,    1.9,    1.7,    1.7,    1.7,    2.1,  999.0,    2.9,    3.1,    3.7,    3.8,    3.6,    3.8,    4.0,    4.8,    4.0,    2.9,    2.9,  999.0,    2.0,  999.0,    3.1,    2.4,    2.2,    2.3,    1.9,    1.1,  999.0,    2.3,    2.8,  999.0,  999.0,    2.9,    4.0,    3.8,    4.0,    5.1,    5.9,    6.5,    5.4,    4.6,    4.5,    4.3,    4.7,    3.9,    4.2,    4.9,    4.6,    3.5,    2.5,    2.2,    0.9,    0.9,    0.9,    0.9,    0.9,   -0.2,   -1.0,   -1.4,   -1.2,   -1.4,   -1.7,   -2.7,   -2.7,  999.0,  999.0,  999.0,  999.0,   -3.6,   -4.2,  999.0,  999.0,  999.0,  999.0,  -11.4,  -13.2,  999.0,  999.0
2010/10/19 18:00,  999.0,  999.0,  999.0,  999.0,  999.0,  999.0,  999.0,    2.8,    2.5,  999.0,    2.4,    2.8,    2.7,    2.3,  999.0,    2.9,    2.5,    1.7,    2.0,    1.9,    2.0,    1.9,    1.8,    1.7,    1.8,    2.2,    2.3,    2.5,    2.9,    3.4,    3.6,    3.8,    3.8,    4.0,    4.2,    3.5,    2.6,    2.3,    2.0,    2.0,    2.5,    3.0,    1.8,    1.7,    2.5,    1.9,    1.6,    2.3,    2.5,    3.2,    3.6,    3.7,    3.6,    3.7,    2.3,    5.2,    6.3,    6.5,    5.9,    5.4,    5.2,    4.6,    4.5,    3.9,    3.2,    3.8,    4.3,  999.0,    2.4,  999.0,  999.0,  999.0,  999.0,  999.0,    0.1,  999.0,  999.0,   -0.4,   -1.0,   -1.7,   -2.7,   -2.2,   -3.1,   -3.0,   -3.7,   -3.7,   -3.5,   -3.2,   -3.7,   -4.8,   -5.1,   -6.1,   -8.2,  999.0,  999.0,  999.0,  999.0,  999.0
2010/10/19 18:10,  999.0,  999.0,  999.0,  999.0,  999.0,  999.0,  999.0,  999.0,  999.0,  999.0,  999.0,  999.0,    2.4,    2.0,  999.0,  999.0,    2.8,    2.6,    2.1,    2.1,    2.0,    2.1,    2.4,    2.7,    2.1,    2.2,    2.5,    3.0,    2.9,    3.3,    3.4,    3.6,    3.6,    3.9,    3.7,    3.6,    2.5,    2.4,    2.1,    2.1,    2.9,    2.4,    1.9,    2.8,    2.4,    2.2,    2.4,    2.8,    3.5,    4.0,    4.6,    4.2,    4.3,    4.2,    4.2,    4.7,    5.8,  999.0,  999.0,  999.0,  999.0,  999.0,  999.0,  999.0,  999.0,  999.0,  999.0,  999.0,  999.0,    1.9,    1.0,   -0.5,   -1.1,   -1.7,   -2.0,   -1.9,   -1.5,   -1.2,   -1.3,   -1.1,   -1.1,   -1.3,   -1.5,   -2.1,   -3.3,   -4.1,   -4.5,   -4.2,   -3.7,   -3.9,   -4.6,   -5.3,  999.0,  999.0,  999.0,  999.0,  999.0,  999.0
2010/10/19 18:20,  999.0,  999.0,  999.0,  999.0,  999.0,  999.0,  999.0,  999.0,  999.0,  999.0,  999.0,  999.0,  999.0,  999.0,  999.0,  999.0,  999.0,  999.0,    2.0,    2.3,    2.5,  999.0,    3.1,    3.1,    2.9,    3.0,    3.2,    3.2,    3.4,  999.0,    3.6,    3.7,    4.3,    4.4,    4.0,    4.3,    2.9,    2.8,    2.4,    2.5,    2.9,    2.1,    2.0,    2.5,    2.2,    2.2,    2.4,    2.9,    3.4,    3.7,    5.1,    4.8,    4.3,    4.8,  999.0,    4.1,    4.7,  999.0,  999.0,  999.0,  999.0,  999.0,  999.0,  999.0,  999.0,  999.0,  999.0,  999.0,  999.0,  999.0,  999.0,  999.0,  999.0,   -1.1,   -1.3,   -1.9,   -1.9,   -1.7,   -1.8,   -1.9,   -2.0,   -1.9,   -1.7,   -1.5,   -1.9,   -3.1,   -3.5,   -3.7,   -3.2,  999.0,  999.0,  999.0,  999.0,  999.0,  999.0,  999.0,  999.0,  999.0
2010/10/19 18:30,  999.0,  999.0,  999.0,  999.0,  999.0,  999.0,  999.0,  999.0,  999.0,  999.0,  999.0,  999.0,    2.2,  999.0,  999.0,    2.6,    2.8,    2.5,    2.2,    2.0,    2.2,    2.4,    2.6,    3.1,    3.0,    2.9,    3.0,    3.1,  999.0,  999.0,    3.1,    3.4,    4.1,    4.6,    3.9,    4.3,  999.0,    2.8,    2.9,    2.6,    2.8,    2.5,    3.2,    3.7,    2.9,    3.1,    2.9,    3.5,    4.5,    5.5,  999.0,  999.0,  999.0,  999.0,    3.8,    4.6,  999.0,  999.0,  999.0,  999.0,  999.0,  999.0,  999.0,  999.0,  999.0,  999.0,  999.0,  999.0,  999.0,  999.0,  999.0,  999.0,  999.0,  999.0,  999.0,  999.0,  999.0,  999.0,  999.0,  999.0,  999.0,  999.0,  999.0,  999.0,  999.0,  999.0,  999.0,  999.0,  999.0,  999.0,  999.0,  999.0,  999.0,  999.0,  999.0,  999.0,  999.0,  999.0
2010/10/19 18:40,  999.0,  999.0,  999.0,    4.8,    4.4,    5.2,    5.0,    3.8,    3.5,    3.4,    3.2,  999.0,    2.3,  999.0,    2.6,    2.5,    2.4,    2.2,    1.8,    2.0,    2.4,    2.8,    3.2,    3.3,    3.3,    3.5,    2.8,    3.0,  999.0,    2.8,    2.9,    3.3,    4.0,  999.0,  999.0,    3.2,    3.2,    2.3,    2.6,    2.7,    2.8,    2.8,    3.5,    3.3,    3.3,    2.8,    3.0,    3.6,    4.8,    5.6,  999.0,  999.0,  999.0,  999.0,  999.0,  999.0,  999.0,  999.0,  999.0,  999.0,  999.0,  999.0,  999.0,  999.0,  999.0,  999.0,  999.0,  999.0,  999.0,  999.0,  999.0,  999.0,  999.0,  999.0,  999.0,  999.0,  999.0,  999.0,  999.0,  999.0,  999.0,  999.0,  999.0,  999.0,  999.0,  999.0,  999.0,  999.0,  999.0,  999.0,  999.0,  999.0,  999.0,  999.0,  999.0,  999.0,  999.0,  999.0
2010/10/19 18:50,  999.0,  999.0,  999.0,  999.0,    4.8,    4.9,    5.0,    3.9,    3.2,    2.9,    2.8,    2.9,    2.6,    1.9,    2.3,    2.6,    2.2,    2.2,    1.9,    2.1,    2.6,    3.2,    3.8,    3.7,    3.8,    3.9,    3.2,    3.2,  999.0,    3.3,    3.4,    4.0,    4.1,  999.0,  999.0,    2.9,  999.0,  999.0,  999.0,    2.3,    2.8,    2.7,    3.1,  999.0,    2.1,    1.8,    2.1,    2.7,    3.6,    4.4,  999.0,  999.0,  999.0,  999.0,  999.0,  999.0,  999.0,  999.0,  999.0,  999.0,  999.0,  999.0,  999.0,  999.0,  999.0,  999.0,  999.0,  999.0,  999.0,  999.0,  999.0,  999.0,  999.0,  999.0,  999.0,  999.0,  999.0,  999.0,  999.0,  999.0,  999.0,  999.0,  999.0,  999.0,  999.0,   -3.8,   -3.1,   -2.7,   -2.3,   -1.9,   -3.3,   -5.0,  999.0,  999.0,  999.0,  999.0,  999.0,  999.0
2010/10/19 19:00,  999.0,  999.0,    3.6,    3.7,    4.5,    5.0,    4.6,  999.0,  999.0,    2.5,    2.8,    2.8,    2.4,    1.7,  999.0,  999.0,  999.0,  999.0,    1.7,    2.0,  999.0,  999.0,    3.2,    3.4,    3.2,    2.9,    3.0,    3.1,    2.5,    3.4,    3.7,    4.2,    4.9,  999.0,    4.7,    4.7,  999.0,  999.0,    3.5,    3.8,    4.1,  999.0,  999.0,    2.1,    2.0,    2.3,    2.3,    3.1,  999.0,    4.6,  999.0,  999.0,  999.0,  999.0,  999.0,  999.0,  999.0,  999.0,  999.0,  999.0,  999.0,  999.0,  999.0,  999.0,  999.0,  999.0,  999.0,  999.0,  999.0,  999.0,  999.0,  999.0,  999.0,  999.0,  999.0,   -0.5,   -2.0,   -2.5,   -2.5,   -2.5,   -2.5,   -2.9,   -3.1,   -3.3,   -3.7,   -3.9,   -3.7,   -3.2,   -2.7,   -2.5,   -3.3,   -4.8,   -6.4,   -8.1,  999.0,  999.0,  999.0,  999.0
2010/10/19 19:10,  999.0,  999.0,    3.2,    3.4,    4.1,    4.1,    3.8,    2.5,  999.0,    2.5,  999.0,  999.0,  999.0,  999.0,  999.0,  999.0,  999.0,    2.2,    1.7,    1.6,    2.1,    2.6,    2.9,    3.4,    3.0,    3.0,    2.7,    2.4,  999.0,    3.0,    3.0,    3.3,    4.0,    3.5,    3.6,    3.7,  999.0,  999.0,    3.7,    4.1,    4.3,  999.0,    3.2,    2.4,    2.0,    1.8,    2.2,    2.7,    3.1,    3.0,  999.0,  999.0,  999.0,  999.0,  999.0,  999.0,  999.0,  999.0,  999.0,  999.0,  999.0,  999.0,  999.0,  999.0,  999.0,  999.0,   -0.3,   -0.6,   -0.6,   -0.6,   -0.1,    1.2,    1.8,    1.3,    0.2,   -1.0,   -1.7,   -1.8,   -2.0,   -2.7,   -3.2,   -3.4,   -3.5,   -3.7,   -3.9,   -3.7,   -3.5,   -3.6,   -3.4,   -3.5,   -4.7,   -6.1,   -7.2,  999.0,  999.0,  999.0,  999.0,  999.0
2010/10/19 19:20,    1.5,  999.0,    2.6,    2.9,    3.2,    3.6,    3.9,    3.6,    2.8,    2.3,    2.5,    2.7,    2.1,    2.0,    2.9,    2.4,    2.3,    2.1,    2.2,    2.1,    2.9,    3.5,    3.9,    4.0,    3.8,    3.5,    3.0,    3.1,  999.0,    3.7,    3.7,    3.8,    4.2,    4.1,    4.5,    4.3,    4.3,    4.2,    4.3,    4.5,    4.3,    4.1,    3.8,    2.6,    2.1,    1.9,    2.3,    3.0,    3.8,  999.0,  999.0,  999.0,  999.0,  999.0,  999.0,  999.0,  999.0,  999.0,  999.0,  999.0,    1.1,    1.1,    1.2,    1.0,    0.4,   -0.2,   -0.3,   -0.3,   -0.2,    0.1,    0.9,    1.5,    1.4,    0.6,   -0.4,   -1.5,   -2.5,   -3.4,   -4.2,   -4.5,   -4.6,   -4.5,   -4.3,   -4.2,   -4.4,   -4.5,   -3.9,   -3.5,   -3.5,   -3.7,   -3.9,   -4.9,   -5.9,   -6.9,   -6.7,   -7.6,   -8.3,  999.0
2010/10/19 19:30,  999.0,  999.0,    2.2,  999.0,    2.9,    3.4,    4.1,    4.0,    3.4,    2.1,    2.1,    2.4,    2.0,    2.0,    2.2,    2.4,    2.3,    2.6,    2.4,    2.0,    2.7,    3.4,    4.1,  999.0,    4.0,    4.1,  999.0,    3.4,  999.0,  999.0,    4.1,    4.0,    4.6,    4.7,    4.6,    4.8,    4.4,    3.8,    3.8,    4.0,    3.8,    3.3,    3.0,    2.0,    1.3,    1.5,    1.9,    2.6,  999.0,  999.0,  999.0,  999.0,  999.0,  999.0,  999.0,  999.0,  999.0,  999.0,    2.4,    1.6,    1.4,    1.5,    1.6,    1.6,    1.6,    1.0,    0.4,    0.5,    0.8,    1.1,    1.4,    1.3,    0.7,   -0.3,   -1.3,   -2.6,   -3.6,   -4.3,   -4.8,   -5.1,   -5.3,   -5.2,   -4.6,   -4.2,   -4.1,   -4.4,   -4.4,   -3.7,   -3.4,   -3.7,   -3.6,   -3.7,   -4.5,   -5.1,   -5.8,   -6.5,   -7.4,  999.0
2010/10/19 19:40,    0.1,    1.6,    1.2,    1.6,    2.9,    3.3,    4.3,    4.0,    3.7,  999.0,    2.3,    2.4,  999.0,  999.0,  999.0,  999.0,  999.0,    2.5,    2.5,    2.3,    2.6,    3.1,    3.8,    4.2,    4.2,    4.4,  999.0,    3.6,    4.5,    4.1,    4.7,    4.6,    4.8,    4.6,    5.1,    5.5,    4.5,    4.1,    4.0,    4.0,    4.0,    3.7,    3.2,    2.8,    1.7,    1.7,    2.1,    3.2,    3.3,  999.0,  999.0,  999.0,  999.0,  999.0,  999.0,  999.0,  999.0,    3.7,    2.6,    1.7,    1.7,    1.6,    1.7,    2.2,    2.0,    1.3,    1.2,    1.4,    1.5,    1.4,    0.7,    0.2,   -0.1,   -1.1,   -2.2,   -2.9,   -3.5,   -3.6,   -3.9,   -4.4,   -5.1,   -5.8,   -6.0,   -5.6,   -5.1,   -4.7,   -4.2,   -3.4,   -3.4,   -4.0,   -4.0,   -3.8,   -4.3,   -5.2,   -6.0,  999.0,  999.0,  999.0
2010/10/19 19:50,  999.0,    2.1,    2.3,    2.7,    3.0,    3.1,    3.6,    4.3,    3.9,    3.6,    2.3,    2.4,  999.0,    2.1,    1.9,  999.0,  999.0,    2.7,  999.0,    2.5,    2.9,  999.0,    4.1,    4.5,  999.0,    4.6,    4.6,  999.0,  999.0,  999.0,    3.8,    4.3,    4.3,  999.0,  999.0,    4.4,    3.8,    3.4,    3.4,    3.7,    3.3,    3.5,    3.5,    2.9,    2.2,    2.2,    2.1,    2.5,    3.3,    3.5,  999.0,  999.0,  999.0,  999.0,  999.0,  999.0,    4.7,    4.0,    2.7,    2.1,    1.9,    1.8,    1.9,    2.3,    1.9,    1.4,    1.3,    1.6,    1.7,    1.3,    0.2,   -0.1,   -0.7,   -1.6,   -2.6,   -2.9,   -2.9,   -2.7,   -2.6,   -3.0,   -4.0,   -5.3,   -6.0,   -6.0,   -5.5,   -4.6,   -3.7,   -3.5,   -4.3,   -5.2,   -5.7,   -5.2,   -5.2,   -5.9,  999.0,  999.0,  999.0,  999.0
2010/10/19 20:00,  999.0,  999.0,  999.0,    3.3,    3.6,    3.9,    4.4,    4.8,    4.0,    4.1,    2.9,    2.8,  999.0,    2.2,  999.0,    2.3,    2.1,    2.1,    2.2,    2.3,    2.9,    3.7,    4.0,    4.3,    4.5,  999.0,    4.4,  999.0,  999.0,    3.6,    4.0,    4.0,    4.5,  999.0,  999.0,    4.8,    4.1,    4.4,    4.0,    4.1,  999.0,  999.0,    3.9,    3.7,    2.7,  999.0,    2.1,    2.4,    2.7,    2.8,  999.0,  999.0,  999.0,  999.0,  999.0,    4.1,    4.3,    4.3,    3.9,    3.0,    2.4,    2.2,    2.2,    2.3,    1.9,    1.5,    1.5,    1.7,    1.7,    1.3,    0.4,   -0.2,   -0.9,   -2.0,   -2.6,   -2.7,   -2.4,   -2.3,   -2.0,   -2.3,   -3.6,   -5.5,   -6.7,   -6.2,   -5.6,   -4.4,   -4.2,   -5.6,   -6.7,   -7.4,   -6.9,   -7.2,   -7.8,  999.0,  999.0,  999.0,  999.0,  999.0
2010/10/19 20:10,  999.0,  999.0,  999.0,  999.0,    3.5,    4.0,    4.2,    5.1,    4.3,    4.1,    2.9,    3.3,  999.0,    2.8,  999.0,  999.0,    1.8,    1.9,    1.9,    2.0,    2.4,    3.1,  999.0,    3.6,    3.5,  999.0,    3.4,  999.0,  999.0,    3.3,    3.6,    3.9,  999.0,  999.0,  999.0,    4.6,    4.5,    5.1,    4.5,    4.6,    4.5,    4.2,    3.6,    3.2,    2.5,    1.6,  999.0,    2.3,    2.8,    2.9,  999.0,  999.0,  999.0,  999.0,  999.0,    3.7,    4.4,    4.6,    4.3,    3.6,    2.9,    2.3,    2.1,    2.1,    1.8,    1.6,    1.7,    1.5,    1.4,    1.0,    0.1,   -0.1,   -0.7,   -1.4,   -2.0,   -2.5,   -2.7,   -2.9,   -2.8,   -3.3,   -4.5,   -6.2,  999.0,   -5.5,   -5.6,   -5.7,   -6.4,   -7.2,  999.0,  999.0,  999.0,  999.0,  999.0,  999.0,  999.0,  999.0,  999.0,  999.0
2010/10/19 20:20,  999.0,  999.0,  999.0,  999.0,    3.9,    4.1,    4.2,    4.9,    4.6,    4.1,    2.9,  999.0,    2.7,    2.7,    2.2,    2.5,    2.2,    2.7,    2.5,    2.3,    2.2,    2.6,  999.0,  999.0,    2.9,  999.0,  999.0,  999.0,  999.0,    3.3,    3.9,    4.1,    4.6,    4.9,  999.0,  999.0,  999.0,    4.8,    4.3,    4.1,    4.0,    4.1,  999.0,  999.0,    2.8,    2.2,  999.0,    2.1,    2.9,    3.5,    3.1,  999.0,  999.0,  999.0,  999.0,  999.0,    4.4,    4.6,    4.5,    3.6,    2.8,    2.5,    2.1,    2.3,    2.4,    2.1,    2.1,    1.7,    1.5,    1.3,   -0.1,   -0.7,   -1.3,   -2.0,   -2.8,   -3.0,   -3.1,   -3.2,   -3.8,   -4.8,   -5.5,  999.0,  999.0,  999.0,  999.0,  999.0,  999.0,  999.0,  999.0,  999.0,  999.0,  999.0,  999.0,  999.0,  999.0,  999.0,  999.0,  999.0
2010/10/19 20:30,  999.0,  999.0,  999.0,  999.0,    4.3,    4.6,    4.4,    4.7,    4.6,    3.7,    3.2,  999.0,  999.0,    3.4,    2.7,    2.5,    2.4,    2.3,    2.2,    2.1,    2.3,  999.0,  999.0,    2.8,  999.0,  999.0,    3.1,    3.2,  999.0,  999.0,    3.2,    3.6,  999.0,    4.3,  999.0,  999.0,    4.5,    4.2,    4.0,  999.0,    3.8,    3.1,  999.0,    3.4,    3.3,    2.9,    2.6,    2.0,    2.3,    3.4,    3.5,    3.6,  999.0,  999.0,  999.0,  999.0,  999.0,  999.0,  999.0,  999.0,    2.9,    2.4,  999.0,  999.0,    2.4,    1.5,    1.5,    1.2,    0.9,    0.5,   -0.1,   -1.3,   -2.6,   -3.2,   -3.5,   -3.5,   -3.9,   -3.9,  999.0,  999.0,  999.0,  999.0,  999.0,  999.0,  999.0,  999.0,  999.0,  999.0,  999.0,  999.0,  999.0,  999.0,  999.0,  999.0,  999.0,  999.0,  999.0,  999.0
2010/10/19 20:40,  999.0,    3.5,  999.0,    4.0,    4.3,    4.6,    4.0,    4.2,  999.0,    3.9,    3.4,  999.0,  999.0,  999.0,    2.5,    2.3,    1.9,    2.0,    2.0,    1.9,    2.7,    3.1,  999.0,  999.0,  999.0,    2.6,    3.0,    3.6,    3.0,  999.0,    3.9,    4.4,    4.7,  999.0,  999.0,  999.0,    4.4,    4.6,    4.5,  999.0,    3.5,  999.0,    2.8,    3.5,    3.7,    3.0,  999.0,  999.0,  999.0,    2.8,    3.4,    3.1,  999.0,  999.0,  999.0,  999.0,  999.0,  999.0,  999.0,  999.0,  999.0,  999.0,  999.0,  999.0,  999.0,  999.0,  999.0,  999.0,  999.0,  999.0,  999.0,  999.0,  999.0,  999.0,  999.0,  999.0,  999.0,  999.0,  999.0,  999.0,  999.0,  999.0,  999.0,  999.0,  999.0,  999.0,  999.0,  999.0,  999.0,  999.0,  999.0,  999.0,  999.0,  999.0,  999.0,  999.0,  999.0,  999.0
2010/10/19 20:50,  999.0,  999.0,  999.0,  999.0,    4.2,    4.5,    4.9,    4.1,    3.9,    3.7,    3.6,  999.0,  999.0,  999.0,    1.9,    2.0,    1.4,  999.0,    1.5,    1.6,    2.4,    2.7,  999.0,  999.0,    2.5,    2.7,  999.0,    3.0,  999.0,    3.4,    4.2,  999.0,  999.0,  999.0,  999.0,    4.1,    4.5,    4.6,    4.1,    3.0,    3.2,    2.9,    3.3,    3.2,    3.0,    3.1,    3.2,  999.0,  999.0,    3.4,    3.3,    3.4,    3.7,  999.0,  999.0,  999.0,  999.0,  999.0,  999.0,  999.0,  999.0,  999.0,  999.0,  999.0,  999.0,  999.0,  999.0,  999.0,  999.0,  999.0,  999.0,  999.0,  999.0,  999.0,  999.0,  999.0,  999.0,  999.0,  999.0,  999.0,  999.0,  999.0,  999.0,  999.0,  999.0,  999.0,  999.0,  999.0,  999.0,  999.0,  999.0,  999.0,  999.0,  999.0,  999.0,  999.0,  999.0,  999.0
2010/10/19 21:00,  999.0,  999.0,  999.0,    3.4,    3.8,    4.2,  999.0,    3.7,    3.5,    3.3,    3.4,  999.0,  999.0,  999.0,  999.0,    2.0,  999.0,    1.3,    1.2,    1.3,    1.9,  999.0,  999.0,  999.0,    2.1,    2.3,    2.5,    2.8,  999.0,    3.2,    4.2,    4.4,  999.0,  999.0,    4.4,    4.1,    3.7,    3.6,    3.3,    3.1,    3.0,    3.5,    3.7,    3.6,  999.0,  999.0,    3.4,  999.0,    3.3,  999.0,  999.0,  999.0,    3.6,  999.0,  999.0,  999.0,  999.0,  999.0,  999.0,  999.0,  999.0,  999.0,  999.0,  999.0,  999.0,  999.0,  999.0,  999.0,  999.0,  999.0,  999.0,  999.0,  999.0,  999.0,  999.0,  999.0,  999.0,  999.0,  999.0,  999.0,  999.0,  999.0,  999.0,  999.0,  999.0,  999.0,  999.0,  999.0,  999.0,  999.0,  999.0,  999.0,  999.0,  999.0,  999.0,  999.0,  999.0,  999.0
2010/10/19 21:10,  999.0,  999.0,  999.0,    2.8,    3.7,    4.0,    3.8,    3.2,    3.9,    3.4,    3.5,    3.0,  999.0,  999.0,    2.5,    2.5,    2.5,    2.0,    1.5,    1.7,    2.1,  999.0,  999.0,  999.0,    2.2,    2.6,    2.9,    3.1,  999.0,    3.3,    4.1,    4.6,  999.0,  999.0,    4.3,    3.8,    3.7,    3.5,    3.1,    3.1,    2.8,    3.6,    4.0,  999.0,  999.0,  999.0,    3.2,  999.0,    3.5,    3.4,  999.0,  999.0,  999.0,  999.0,  999.0,  999.0,  999.0,  999.0,  999.0,  999.0,  999.0,  999.0,  999.0,  999.0,  999.0,  999.0,  999.0,  999.0,  999.0,  999.0,  999.0,  999.0,  999.0,  999.0,  999.0,  999.0,  999.0,  999.0,  999.0,  999.0,  999.0,  999.0,  999.0,  999.0,  999.0,  999.0,  999.0,  999.0,  999.0,  999.0,  999.0,  999.0,  999.0,  999.0,  999.0,  999.0,  999.0,  999.0
2010/10/19 21:20,  999.0,  999.0,  999.0,    3.1,    3.4,    3.7,    3.6,    3.3,    3.4,    2.9,    2.9,  999.0,  999.0,    2.2,    2.4,    2.3,    2.2,    2.1,    1.5,    1.5,    1.6,    1.9,  999.0,  999.0,    1.6,    2.1,    2.2,    2.7,    2.7,    3.0,    4.0,    3.9,  999.0,  999.0,  999.0,    3.8,    3.9,  999.0,    3.6,    3.2,    3.0,    3.1,    3.7,    4.6,  999.0,  999.0,  999.0,    4.6,  999.0,  999.0,    3.8,  999.0,  999.0,  999.0,  999.0,  999.0,  999.0,  999.0,  999.0,  999.0,  999.0,  999.0,  999.0,  999.0,  999.0,  999.0,  999.0,  999.0,  999.0,  999.0,  999.0,  999.0,  999.0,  999.0,  999.0,  999.0,  999.0,  999.0,  999.0,  999.0,  999.0,  999.0,  999.0,  999.0,  999.0,  999.0,  999.0,  999.0,  999.0,  999.0,  999.0,  999.0,  999.0,  999.0,  999.0,  999.0,  999.0,  999.0
2010/10/19 21:30,  999.0,  999.0,    3.3,    3.5,    3.2,    3.6,    3.8,    3.6,    3.4,    3.1,  999.0,    2.6,    2.3,  999.0,    2.3,    2.0,    1.9,    1.9,    1.4,    1.1,    1.2,  999.0,  999.0,  999.0,  999.0,    1.8,    1.9,    2.6,    2.8,    2.9,    3.5,  999.0,  999.0,  999.0,  999.0,  999.0,    4.3,  999.0,    3.1,    3.5,    3.5,    3.3,    4.2,    4.1,  999.0,  999.0,    4.2,    5.3,  999.0,  999.0,    4.1,    4.6,  999.0,  999.0,  999.0,  999.0,  999.0,  999.0,  999.0,  999.0,  999.0,  999.0,  999.0,  999.0,  999.0,  999.0,  999.0,  999.0,  999.0,  999.0,  999.0,  999.0,  999.0,  999.0,  999.0,  999.0,  999.0,  999.0,  999.0,  999.0,  999.0,  999.0,  999.0,  999.0,  999.0,  999.0,  999.0,  999.0,  999.0,  999.0,  999.0,  999.0,  999.0,  999.0,  999.0,  999.0,  999.0,  999.0
2010/10/19 21:40,   -0.1,    0.7,    0.8,    1.6,    2.5,    3.3,    3.2,    2.9,    2.8,    3.4,    1.9,  999.0,  999.0,  999.0,  999.0,  999.0,    2.0,    1.9,    1.4,  999.0,    1.2,    1.4,  999.0,    2.5,  999.0,    1.7,    2.2,  999.0,    2.0,    2.1,    2.3,    3.2,  999.0,  999.0,  999.0,  999.0,  999.0,  999.0,  999.0,    2.8,    3.1,    3.3,    4.1,    4.8,  999.0,  999.0,    4.1,    4.9,    4.5,    4.3,    4.0,    4.1,  999.0,  999.0,  999.0,  999.0,  999.0,  999.0,  999.0,  999.0,  999.0,  999.0,  999.0,  999.0,  999.0,  999.0,  999.0,  999.0,  999.0,  999.0,  999.0,  999.0,  999.0,  999.0,  999.0,  999.0,  999.0,  999.0,  999.0,  999.0,  999.0,  999.0,  999.0,  999.0,  999.0,  999.0,  999.0,  999.0,  999.0,  999.0,  999.0,  999.0,  999.0,  999.0,  999.0,  999.0,  999.0,  999.0
2010/10/19 21:50,  999.0,    0.9,    2.0,    2.3,    2.4,    2.8,    3.0,    3.4,    3.0,    3.3,  999.0,    1.8,  999.0,    2.0,    1.8,    2.0,    2.0,    1.9,    1.4,  999.0,  999.0,    1.9,    1.8,    2.2,  999.0,    2.1,    1.9,    2.1,    2.3,    2.1,    2.9,    3.8,  999.0,  999.0,  999.0,  999.0,  999.0,  999.0,  999.0,    3.2,    3.6,    3.7,    4.5,    4.7,  999.0,  999.0,    4.8,    5.4,    4.4,    4.3,    4.1,  999.0,  999.0,  999.0,  999.0,  999.0,  999.0,  999.0,  999.0,  999.0,  999.0,  999.0,  999.0,  999.0,  999.0,  999.0,  999.0,  999.0,  999.0,  999.0,  999.0,  999.0,  999.0,  999.0,  999.0,  999.0,  999.0,  999.0,  999.0,  999.0,  999.0,  999.0,  999.0,  999.0,  999.0,  999.0,  999.0,  999.0,  999.0,  999.0,  999.0,  999.0,  999.0,  999.0,  999.0,  999.0,  999.0,  999.0
2010/10/19 22:00,    0.6,    1.5,    1.8,  999.0,  999.0,    2.6,    2.9,    3.0,    2.8,    2.9,  999.0,    1.3,    1.8,    1.9,    2.0,    2.0,    2.1,    1.7,    1.5,    0.8,  999.0,    2.1,    1.8,    1.9,  999.0,    2.1,    1.7,  999.0,    2.1,    2.5,    2.8,    3.6,  999.0,  999.0,  999.0,  999.0,  999.0,  999.0,  999.0,  999.0,    3.0,    3.2,    3.9,  999.0,  999.0,  999.0,  999.0,  999.0,    4.6,    4.9,    4.3,  999.0,  999.0,  999.0,  999.0,  999.0,  999.0,  999.0,  999.0,  999.0,  999.0,  999.0,  999.0,  999.0,  999.0,  999.0,  999.0,  999.0,  999.0,  999.0,  999.0,  999.0,  999.0,  999.0,  999.0,  999.0,  999.0,  999.0,  999.0,  999.0,  999.0,  999.0,  999.0,  999.0,  999.0,  999.0,  999.0,  999.0,  999.0,  999.0,  999.0,  999.0,  999.0,  999.0,  999.0,  999.0,  999.0,  999.0
2010/10/19 22:10,    0.4,    0.6,  999.0,    2.0,    2.0,    2.6,  999.0,  999.0,    2.5,    3.1,    1.5,    1.4,    1.3,    1.9,  999.0,    1.8,    1.9,    2.1,    1.5,    1.8,    1.8,    2.0,    2.3,    2.9,  999.0,    2.0,    2.2,    2.4,    2.9,    3.0,    3.1,  999.0,    4.4,  999.0,  999.0,  999.0,    4.6,    5.2,  999.0,    3.0,    3.8,    4.6,  999.0,  999.0,  999.0,  999.0,  999.0,  999.0,    5.1,    4.9,    5.0,    4.9,  999.0,  999.0,  999.0,  999.0,  999.0,  999.0,  999.0,  999.0,  999.0,  999.0,  999.0,  999.0,  999.0,  999.0,  999.0,  999.0,  999.0,  999.0,  999.0,  999.0,  999.0,  999.0,  999.0,  999.0,  999.0,  999.0,  999.0,  999.0,  999.0,  999.0,  999.0,  999.0,  999.0,  999.0,  999.0,  999.0,  999.0,  999.0,  999.0,  999.0,  999.0,  999.0,  999.0,  999.0,  999.0,  999.0
2010/10/19 22:20,    0.3,    0.6,    0.9,    1.3,    1.6,    2.1,  999.0,    1.9,    2.1,    2.3,    1.4,  999.0,    0.9,    1.2,    1.2,    1.0,    1.2,    1.3,    1.3,    1.1,    1.8,    2.1,    2.3,    2.8,  999.0,  999.0,    2.1,    2.5,  999.0,    2.8,    3.2,    3.2,    4.4,  999.0,    4.9,  999.0,  999.0,    5.4,    5.4,  999.0,    3.7,    3.9,  999.0,  999.0,  999.0,  999.0,  999.0,  999.0,  999.0,    4.8,    4.9,    4.7,    4.9,  999.0,  999.0,  999.0,  999.0,  999.0,  999.0,  999.0,  999.0,  999.0,  999.0,  999.0,  999.0,  999.0,  999.0,  999.0,  999.0,  999.0,  999.0,  999.0,  999.0,  999.0,  999.0,  999.0,  999.0,  999.0,  999.0,  999.0,  999.0,  999.0,  999.0,  999.0,  999.0,  999.0,  999.0,  999.0,  999.0,  999.0,  999.0,  999.0,  999.0,  999.0,  999.0,  999.0,  999.0,  999.0
2010/10/19 22:30,    0.5,    0.1,    1.0,    1.1,    1.3,    1.9,    2.3,    2.2,    2.8,    3.0,    1.8,    1.3,    1.3,    1.9,    1.7,    1.7,    1.8,    2.0,    2.0,    1.5,    1.9,    2.3,    2.5,    3.1,  999.0,  999.0,    2.6,    2.7,  999.0,    3.2,    3.3,    3.8,    4.7,    5.2,    5.1,    5.5,    5.1,    5.4,    5.8,  999.0,    3.8,    4.3,  999.0,    5.6,  999.0,  999.0,  999.0,  999.0,  999.0,    5.0,    4.8,    4.5,    4.4,  999.0,  999.0,  999.0,  999.0,  999.0,  999.0,  999.0,  999.0,  999.0,  999.0,  999.0,  999.0,  999.0,  999.0,  999.0,  999.0,  999.0,  999.0,  999.0,  999.0,  999.0,  999.0,  999.0,  999.0,  999.0,  999.0,  999.0,  999.0,  999.0,  999.0,  999.0,  999.0,  999.0,  999.0,  999.0,  999.0,  999.0,  999.0,  999.0,  999.0,  999.0,  999.0,  999.0,  999.0,  999.0
2010/10/19 22:40,   -0.1,   -0.1,    0.5,    0.9,    0.9,    1.5,    2.1,    1.8,    2.4,    2.6,    1.0,    0.9,    1.2,    1.5,    1.2,    1.2,  999.0,    1.6,  999.0,    1.1,    1.5,    1.9,    2.1,    2.8,  999.0,    2.1,    2.3,    2.2,  999.0,    3.4,    3.3,    4.4,  999.0,    4.9,    5.7,    5.3,    5.5,    5.2,  999.0,  999.0,    3.9,  999.0,  999.0,  999.0,  999.0,  999.0,  999.0,  999.0,  999.0,    4.0,    4.2,    4.4,  999.0,  999.0,  999.0,  999.0,  999.0,  999.0,  999.0,  999.0,  999.0,  999.0,  999.0,  999.0,  999.0,  999.0,  999.0,  999.0,  999.0,  999.0,  999.0,  999.0,  999.0,  999.0,  999.0,  999.0,  999.0,  999.0,  999.0,  999.0,  999.0,  999.0,  999.0,  999.0,  999.0,  999.0,  999.0,  999.0,  999.0,  999.0,  999.0,  999.0,  999.0,  999.0,  999.0,  999.0,  999.0,  999.0
2010/10/19 22:50,    0.1,    0.3,    0.9,    1.2,    1.3,    1.9,    2.2,    2.3,    2.6,  999.0,    1.2,    1.4,    1.4,    1.6,    1.6,    1.6,    1.8,  999.0,    2.0,    1.9,    2.5,    2.2,    2.8,  999.0,  999.0,  999.0,    2.3,  999.0,  999.0,    2.8,    3.2,    4.0,  999.0,    4.2,    4.8,    4.5,    4.5,    4.8,  999.0,    4.1,  999.0,  999.0,  999.0,  999.0,  999.0,  999.0,  999.0,  999.0,  999.0,    4.6,    4.8,    5.1,  999.0,  999.0,  999.0,  999.0,  999.0,  999.0,  999.0,  999.0,  999.0,  999.0,  999.0,  999.0,  999.0,  999.0,  999.0,  999.0,  999.0,  999.0,  999.0,  999.0,  999.0,  999.0,  999.0,  999.0,  999.0,  999.0,  999.0,  999.0,  999.0,  999.0,  999.0,  999.0,  999.0,  999.0,  999.0,  999.0,  999.0,  999.0,  999.0,  999.0,  999.0,  999.0,  999.0,  999.0,  999.0,  999.0
2010/10/19 23:00,    0.0,    0.6,    1.3,    1.5,    1.8,    2.1,    2.8,    2.6,    2.6,    3.1,    2.7,    1.7,    1.8,    2.1,    1.9,    2.4,  999.0,    2.2,    2.4,    2.4,    2.6,    2.5,    3.0,  999.0,    2.7,    2.2,    2.1,    2.7,    2.8,    2.8,    3.4,    3.9,  999.0,    4.2,    4.4,    4.5,    4.5,    4.4,  999.0,  999.0,  999.0,    3.0,  999.0,    4.2,  999.0,  999.0,  999.0,  999.0,  999.0,    4.0,  999.0,    4.3,  999.0,  999.0,  999.0,  999.0,  999.0,  999.0,    4.7,    4.6,    4.8,  999.0,  999.0,  999.0,  999.0,  999.0,  999.0,  999.0,  999.0,  999.0,  999.0,  999.0,  999.0,  999.0,  999.0,  999.0,  999.0,  999.0,  999.0,  999.0,  999.0,  999.0,  999.0,  999.0,  999.0,  999.0,  999.0,  999.0,  999.0,  999.0,  999.0,  999.0,  999.0,  999.0,  999.0,  999.0,  999.0,  999.0
2010/10/19 23:10,   -0.5,    0.8,    1.5,    2.0,    1.9,    2.0,    2.1,    3.1,    3.1,    3.0,    3.2,    2.4,    1.6,    2.0,    2.0,    1.8,  999.0,  999.0,    2.2,  999.0,    1.9,    2.3,    2.4,    2.8,    2.3,    1.9,    2.0,  999.0,    3.0,    3.1,    3.6,  999.0,  999.0,    4.5,    4.7,    4.9,    4.7,    4.8,    4.7,  999.0,  999.0,    3.7,  999.0,    3.7,  999.0,  999.0,  999.0,  999.0,  999.0,  999.0,    3.7,    3.7,  999.0,  999.0,    5.4,    5.9,  999.0,  999.0,  999.0,  999.0,  999.0,  999.0,  999.0,  999.0,  999.0,  999.0,  999.0,  999.0,  999.0,  999.0,  999.0,  999.0,  999.0,  999.0,  999.0,  999.0,  999.0,  999.0,  999.0,  999.0,  999.0,  999.0,  999.0,  999.0,  999.0,  999.0,  999.0,  999.0,  999.0,  999.0,  999.0,  999.0,  999.0,  999.0,  999.0,  999.0,  999.0,  999.0
2010/10/19 23:20,    0.7,    1.5,    2.0,    2.1,    2.3,    2.4,    2.9,    3.2,    3.0,    3.1,    3.2,    1.7,    1.7,    1.5,    1.7,    1.7,    1.8,    1.6,  999.0,    2.0,    2.3,    2.5,    3.0,  999.0,  999.0,  999.0,    2.3,  999.0,    2.9,    3.1,    3.6,  999.0,    4.7,    4.2,    4.0,    4.2,    4.1,    4.1,    4.5,  999.0,    3.9,    3.5,  999.0,    3.5,    4.1,  999.0,  999.0,  999.0,  999.0,    3.8,  999.0,    3.4,    3.5,    4.3,  999.0,  999.0,  999.0,  999.0,  999.0,    4.7,  999.0,  999.0,  999.0,  999.0,  999.0,  999.0,  999.0,  999.0,  999.0,  999.0,  999.0,  999.0,  999.0,  999.0,  999.0,  999.0,  999.0,  999.0,  999.0,  999.0,  999.0,  999.0,  999.0,  999.0,  999.0,  999.0,  999.0,  999.0,  999.0,  999.0,   -7.9,   -8.5,  999.0,  999.0,  999.0,  999.0,  999.0,  999.0
2010/10/19 23:30,    2.6,    1.9,  999.0,    2.7,    2.4,  999.0,    3.2,    3.6,    3.1,    3.3,    3.4,    1.6,    1.6,    1.7,    2.0,  999.0,    2.3,    1.8,    2.1,    2.4,  999.0,    2.7,    3.2,    3.4,    3.1,    2.8,    2.9,    3.0,  999.0,    3.2,    3.8,    4.9,    4.4,    4.4,    4.2,    4.6,    4.5,    4.8,  999.0,  999.0,  999.0,    4.1,  999.0,    3.6,  999.0,  999.0,  999.0,  999.0,  999.0,    4.1,    4.2,  999.0,    3.8,    4.4,  999.0,  999.0,  999.0,    4.3,    4.8,    5.1,  999.0,  999.0,  999.0,  999.0,  999.0,  999.0,  999.0,  999.0,  999.0,  999.0,  999.0,  999.0,  999.0,  999.0,  999.0,  999.0,  999.0,  999.0,  999.0,  999.0,  999.0,  999.0,  999.0,  999.0,  999.0,  999.0,  999.0,  999.0,  999.0,  999.0,  999.0,  999.0,  999.0,  999.0,  999.0,  999.0,  999.0,  999.0
2010/10/19 23:40,   -0.1,    1.3,    1.3,    2.2,    2.3,  999.0,    3.0,    3.4,    3.2,    2.8,  999.0,    2.2,    1.4,    1.2,    1.5,  999.0,  999.0,    1.6,    1.9,    2.1,    2.4,    2.6,    3.0,    3.4,    3.0,    2.9,    2.7,    3.4,  999.0,    3.4,    4.0,    4.7,    4.6,    4.4,    4.2,    4.3,    4.5,    4.2,    4.6,    4.3,  999.0,    3.4,  999.0,    3.8,  999.0,  999.0,  999.0,  999.0,  999.0,    3.9,    4.3,  999.0,    3.7,    4.3,  999.0,  999.0,  999.0,  999.0,    4.9,    5.0,  999.0,  999.0,  999.0,  999.0,  999.0,  999.0,  999.0,  999.0,  999.0,  999.0,  999.0,  999.0,  999.0,  999.0,  999.0,  999.0,  999.0,  999.0,  999.0,  999.0,  999.0,  999.0,  999.0,  999.0,  999.0,  999.0,  999.0,   -5.2,   -6.3,   -7.1,   -8.1,   -8.5,   -8.9,   -9.0,   -9.5,  -10.7,  999.0,  999.0
2010/10/19 23:50,   -0.5,    1.0,    0.8,    2.1,    2.4,    3.0,    3.1,    3.3,    3.1,    2.8,    3.2,    3.2,    1.3,    1.2,    1.6,    1.9,  999.0,  999.0,    1.6,    2.2,    2.4,    2.6,    3.2,    3.4,  999.0,    3.1,    3.4,    3.5,  999.0,    3.5,    4.1,  999.0,    4.7,    4.3,    4.4,    4.8,    4.3,    4.0,    3.9,    4.2,  999.0,  999.0,  999.0,    4.2,  999.0,  999.0,  999.0,  999.0,    3.8,    4.2,    4.4,    4.2,    3.9,    4.4,    4.9,  999.0,  999.0,    4.4,    5.1,    5.2,    4.9,  999.0,  999.0,  999.0,  999.0,  999.0,  999.0,  999.0,  999.0,  999.0,  999.0,  999.0,  999.0,  999.0,  999.0,  999.0,  999.0,  999.0,  999.0,  999.0,  999.0,  999.0,  999.0,  999.0,  999.0,  999.0,  999.0,  999.0,  999.0,  999.0,  999.0,  999.0,  999.0,  999.0,  999.0,  999.0,  999.0,  999.0
